Time,TemperatureF,DewpointF,PressureIn,WindDirection,WindDirectionDegrees,WindSpeedMPH,WindSpeedGustMPH,Humidity,HourlyPrecipIn,Conditions,Clouds,dailyrainin,SoftwareType,DateUTC
2013-09-19 00:01:00,71.4,68.0,28.61,South,180,3.5,3.5,89,0.00,RA,,0.00,WeatherDisplay:10.37,2013-09-19 05:01:00,
2013-09-19 00:03:00,71.4,68.0,28.61,South,180,3.5,3.5,89,0.00,RA,,0.00,WeatherDisplay:10.37,2013-09-19 05:03:00,
2013-09-19 00:04:00,71.4,68.0,28.61,SW,225,2.9,2.9,89,0.00,RA,,0.00,WeatherDisplay:10.37,2013-09-19 05:04:00,
2013-09-19 00:05:00,71.4,68.0,28.61,SSE,158,2.3,2.3,89,0.00,RA,,0.00,WeatherDisplay:10.37,2013-09-19 05:05:00,
2013-09-19 00:07:00,71.4,68.0,28.61,WSW,248,5.8,5.8,89,0.00,RA,,0.00,WeatherDisplay:10.37,2013-09-19 05:07:00,
2013-09-19 00:08:00,71.4,68.0,28.61,SSW,202,5.8,5.8,89,0.00,RA,,0.00,WeatherDisplay:10.37,2013-09-19 05:08:00,
2013-09-19 00:09:00,71.4,68.0,28.61,WNW,292,5.8,5.8,89,0.00,RA,,0.00,WeatherDisplay:10.37,2013-09-19 05:09:00,
2013-09-19 00:11:00,71.4,68.0,28.61,South,180,4.6,4.6,89,0.00,CLR,,0.00,WeatherDisplay:10.37,2013-09-19 05:11:00,
2013-09-19 00:12:00,71.4,68.0,28.61,WSW,248,4.6,4.6,89,0.00,CLR,,0.00,WeatherDisplay:10.37,2013-09-19 05:12:00,
2013-09-19 00:13:00,71.4,68.0,28.61,SSW,202,3.5,3.5,89,0.00,CLR,,0.00,WeatherDisplay:10.37,2013-09-19 05:13:00,
2013-09-19 00:14:00,71.2,67.8,28.61,SSE,158,2.3,2.3,89,0.00,CLR,,0.00,WeatherDisplay:10.37,2013-09-19 05:14:00,
2013-09-19 00:16:00,71.2,67.8,28.61,South,180,2.6,2.6,89,0.00,CLR,,0.00,WeatherDisplay:10.37,2013-09-19 05:16:00,
2013-09-19 00:17:00,71.2,67.8,28.61,SSE,158,4.3,4.3,89,0.00,CLR,,0.00,WeatherDisplay:10.37,2013-09-19 05:17:00,
2013-09-19 00:18:00,71.2,67.8,28.61,SSW,202,4.6,4.6,89,0.00,CLR,,0.00,WeatherDisplay:10.37,2013-09-19 05:18:00,
2013-09-19 00:19:00,71.2,67.8,28.61,SW,225,2.6,2.6,89,0.00,CLR,,0.00,WeatherDisplay:10.37,2013-09-19 05:19:00,
2013-09-19 00:21:00,71.2,67.8,28.61,WSW,248,3.5,3.5,89,0.00,CLR,,0.00,WeatherDisplay:10.37,2013-09-19 05:21:00,
2013-09-19 00:22:00,71.2,68.2,28.61,NNW,338,3.8,3.8,90,0.00,CLR,,0.00,WeatherDisplay:10.37,2013-09-19 05:22:00,
2013-09-19 00:23:00,71.2,68.2,28.61,SSW,202,8.1,8.1,90,0.00,CLR,,0.00,WeatherDisplay:10.37,2013-09-19 05:23:00,
2013-09-19 00:24:00,71.2,68.2,28.61,SSE,158,8.1,8.1,90,0.00,CLR,,0.00,WeatherDisplay:10.37,2013-09-19 05:24:00,
2013-09-19 00:25:00,71.2,68.2,28.61,SW,225,8.1,8.1,90,0.00,CLR,,0.00,WeatherDisplay:10.37,2013-09-19 05:25:00,
2013-09-19 00:27:00,71.2,68.2,28.61,South,180,4.6,4.6,90,0.00,CLR,,0.00,WeatherDisplay:10.37,2013-09-19 05:27:00,
2013-09-19 00:28:00,71.2,68.2,28.61,SSE,158,4.6,4.6,90,0.00,CLR,,0.00,WeatherDisplay:10.37,2013-09-19 05:28:00,
2013-09-19 00:29:00,71.2,68.2,28.61,SSW,202,4.6,4.6,90,0.00,CLR,,0.00,WeatherDisplay:10.37,2013-09-19 05:29:00,
2013-09-19 00:30:00,71.2,68.2,28.61,SSE,158,3.1,3.1,90,0.00,CLR,,0.00,WeatherDisplay:10.37,2013-09-19 05:30:00,
2013-09-19 00:32:00,71.2,68.2,28.61,South,180,6.4,6.4,90,0.00,CLR,,0.00,WeatherDisplay:10.37,2013-09-19 05:32:00,
2013-09-19 00:33:00,71.2,68.2,28.61,SW,225,6.9,6.9,90,0.00,CLR,,0.00,WeatherDisplay:10.37,2013-09-19 05:33:00,
2013-09-19 00:34:00,71.2,68.2,28.61,WSW,248,6.9,6.9,90,0.00,CLR,,0.00,WeatherDisplay:10.37,2013-09-19 05:34:00,
2013-09-19 00:35:00,71.2,68.2,28.61,SE,135,4.6,4.6,90,0.00,CLR,,0.00,WeatherDisplay:10.37,2013-09-19 05:35:00,
2013-09-19 00:37:00,71.2,68.2,28.61,SSE,158,9.2,9.2,90,0.00,CLR,,0.00,WeatherDisplay:10.37,2013-09-19 05:37:00,
2013-09-19 00:38:00,71.2,68.2,28.61,SSE,158,5.8,5.8,90,0.00,CLR,,0.00,WeatherDisplay:10.37,2013-09-19 05:38:00,
2013-09-19 00:39:00,71.2,68.2,28.61,SSW,202,5.8,5.8,90,0.00,CLR,,0.00,WeatherDisplay:10.37,2013-09-19 05:39:00,
2013-09-19 00:41:00,71.2,68.2,28.61,South,180,4.6,4.6,90,0.00,CLR,,0.00,WeatherDisplay:10.37,2013-09-19 05:41:00,
2013-09-19 00:43:00,71.2,68.5,28.61,North,0,5.8,5.8,91,0.00,CLR,,0.00,WeatherDisplay:10.37,2013-09-19 05:43:00,
2013-09-19 00:44:00,71.2,68.5,28.61,South,180,5.8,5.8,91,0.00,CLR,,0.00,WeatherDisplay:10.37,2013-09-19 05:44:00,
2013-09-19 00:45:00,71.2,68.5,28.61,WSW,248,3.5,3.5,91,0.00,CLR,,0.00,WeatherDisplay:10.37,2013-09-19 05:45:00,
2013-09-19 00:46:00,71.2,68.5,28.61,SSW,202,3.5,3.5,91,0.00,CLR,,0.00,WeatherDisplay:10.37,2013-09-19 05:46:00,
2013-09-19 00:48:00,71.2,68.5,28.61,SSW,202,5.8,5.8,91,0.00,CLR,,0.00,WeatherDisplay:10.37,2013-09-19 05:48:00,
2013-09-19 00:49:00,71.2,68.5,28.61,SW,225,5.8,5.8,91,0.00,CLR,,0.00,WeatherDisplay:10.37,2013-09-19 05:49:00,
2013-09-19 00:50:00,71.2,68.5,28.61,South,180,4.6,4.6,91,0.00,CLR,,0.00,WeatherDisplay:10.37,2013-09-19 05:50:00,
2013-09-19 00:51:00,71.4,68.7,28.61,SSE,158,8.1,8.1,91,0.00,CLR,,0.00,WeatherDisplay:10.37,2013-09-19 05:51:00,
2013-09-19 00:53:00,71.4,68.7,28.61,South,180,3.5,3.5,91,0.00,CLR,,0.00,WeatherDisplay:10.37,2013-09-19 05:53:00,
2013-09-19 00:54:00,71.4,68.7,28.61,SSW,202,4.6,4.6,91,0.00,CLR,,0.00,WeatherDisplay:10.37,2013-09-19 05:54:00,
2013-09-19 00:55:00,71.4,68.7,28.61,South,180,7.4,7.4,91,0.00,CLR,,0.00,WeatherDisplay:10.37,2013-09-19 05:55:00,
2013-09-19 00:57:00,71.2,68.5,28.61,SSW,202,4.6,4.6,91,0.00,CLR,,0.00,WeatherDisplay:10.37,2013-09-19 05:57:00,
2013-09-19 00:59:00,71.2,68.5,28.61,North,0,4.6,4.6,91,0.00,CLR,,0.00,WeatherDisplay:10.37,2013-09-19 05:59:00,
2013-09-19 01:01:00,71.2,68.5,28.61,WSW,248,5.8,5.8,91,0.00,CLR,,0.00,WeatherDisplay:10.37,2013-09-19 06:01:00,
2013-09-19 01:02:00,71.2,68.5,28.61,West,270,2.4,2.4,91,0.00,CLR,,0.00,WeatherDisplay:10.37,2013-09-19 06:02:00,
2013-09-19 01:04:00,71.2,68.2,28.61,SW,225,2.9,2.9,90,0.00,CLR,,0.00,WeatherDisplay:10.37,2013-09-19 06:04:00,
2013-09-19 01:05:00,71.2,68.2,28.61,South,180,2.6,2.6,90,0.00,CLR,,0.00,WeatherDisplay:10.37,2013-09-19 06:05:00,
2013-09-19 01:06:00,71.1,68.0,28.61,SSW,202,2.3,2.3,90,0.00,CLR,,0.00,WeatherDisplay:10.37,2013-09-19 06:06:00,
2013-09-19 01:07:00,71.1,68.3,28.61,SSE,158,3.5,3.5,91,0.00,CLR,,0.00,WeatherDisplay:10.37,2013-09-19 06:07:00,
2013-09-19 01:09:00,71.2,68.5,28.61,SSW,202,4.3,4.3,91,0.00,CLR,,0.00,WeatherDisplay:10.37,2013-09-19 06:09:00,
2013-09-19 01:10:00,71.1,68.4,28.61,SSW,195,2.0,6.0,91,0.00,CLR,,0.00,WeatherDisplay:10.37,2013-09-19 06:10:00,
2013-09-19 01:11:00,71.2,68.5,28.61,SW,225,3.5,3.5,91,0.00,CLR,,0.00,WeatherDisplay:10.37,2013-09-19 06:11:00,
2013-09-19 01:12:00,71.2,68.5,28.61,South,180,3.5,3.5,91,0.00,CLR,,0.00,WeatherDisplay:10.37,2013-09-19 06:12:00,
2013-09-19 01:14:00,71.2,68.5,28.61,SSW,202,3.5,3.5,91,0.00,CLR,,0.00,WeatherDisplay:10.37,2013-09-19 06:14:00,
2013-09-19 01:15:00,71.2,68.5,28.61,SSW,202,3.5,3.5,91,0.00,CLR,,0.00,WeatherDisplay:10.37,2013-09-19 06:15:00,
2013-09-19 01:17:00,71.2,68.5,28.61,SSW,202,5.8,5.8,91,0.00,CLR,,0.00,WeatherDisplay:10.37,2013-09-19 06:17:00,
2013-09-19 01:18:00,71.2,68.5,28.61,South,180,5.8,5.8,91,0.00,CLR,,0.00,WeatherDisplay:10.37,2013-09-19 06:18:00,
2013-09-19 01:19:00,71.2,68.5,28.61,SSE,158,4.6,4.6,91,0.00,CLR,,0.00,WeatherDisplay:10.37,2013-09-19 06:19:00,
2013-09-19 01:20:00,71.2,68.5,28.61,SSW,202,4.6,4.6,91,0.00,CLR,,0.00,WeatherDisplay:10.37,2013-09-19 06:20:00,
2013-09-19 01:22:00,71.2,68.5,28.61,South,180,8.1,8.1,91,0.00,CLR,,0.00,WeatherDisplay:10.37,2013-09-19 06:22:00,
2013-09-19 01:24:00,71.2,68.5,28.61,SSE,158,3.5,3.5,91,0.00,CLR,,0.00,WeatherDisplay:10.37,2013-09-19 06:24:00,
2013-09-19 01:26:00,71.2,68.5,28.61,WSW,248,5.8,5.8,91,0.00,CLR,,0.00,WeatherDisplay:10.37,2013-09-19 06:26:00,
2013-09-19 01:27:00,71.2,68.5,28.61,SSE,158,6.0,6.0,91,0.00,CLR,,0.00,WeatherDisplay:10.37,2013-09-19 06:27:00,
2013-09-19 01:29:00,71.2,68.5,28.61,SSE,158,8.5,8.5,91,0.00,CLR,,0.00,WeatherDisplay:10.37,2013-09-19 06:29:00,
2013-09-19 01:30:00,71.4,68.7,28.61,SSE,158,8.1,8.1,91,0.00,CLR,,0.00,WeatherDisplay:10.37,2013-09-19 06:30:00,
2013-09-19 01:31:00,71.4,68.7,28.61,SSE,158,8.1,8.1,91,0.00,CLR,,0.00,WeatherDisplay:10.37,2013-09-19 06:31:00,
2013-09-19 01:32:00,71.4,68.7,28.61,SSE,158,8.1,8.1,91,0.00,CLR,,0.00,WeatherDisplay:10.37,2013-09-19 06:32:00,
2013-09-19 01:34:00,71.4,68.7,28.61,South,180,5.8,5.8,91,0.00,CLR,,0.00,WeatherDisplay:10.37,2013-09-19 06:34:00,
2013-09-19 01:35:00,71.4,68.7,28.61,SSE,158,7.6,7.6,91,0.00,CLR,,0.00,WeatherDisplay:10.37,2013-09-19 06:35:00,
2013-09-19 01:36:00,71.4,68.7,28.61,SSE,158,8.1,8.1,91,0.00,CLR,,0.00,WeatherDisplay:10.37,2013-09-19 06:36:00,
2013-09-19 01:37:00,71.4,68.7,28.61,SSW,202,4.6,4.6,91,0.00,CLR,,0.00,WeatherDisplay:10.37,2013-09-19 06:37:00,
2013-09-19 01:40:00,71.4,68.7,28.61,SSW,192,2.0,8.0,91,0.00,CLR,,0.00,WeatherDisplay:10.37,2013-09-19 06:40:00,
2013-09-19 01:41:00,71.2,68.5,28.61,WSW,248,5.4,5.4,91,0.00,CLR,,0.00,WeatherDisplay:10.37,2013-09-19 06:41:00,
2013-09-19 01:43:00,71.4,68.7,28.61,SSW,202,5.8,5.8,91,0.00,CLR,,0.00,WeatherDisplay:10.37,2013-09-19 06:43:00,
2013-09-19 01:45:00,71.2,68.5,28.61,West,270,3.5,3.5,91,0.00,CLR,,0.00,WeatherDisplay:10.37,2013-09-19 06:45:00,
2013-09-19 01:46:00,71.2,68.5,28.61,South,180,3.3,3.3,91,0.00,CLR,,0.00,WeatherDisplay:10.37,2013-09-19 06:46:00,
2013-09-19 01:47:00,71.2,68.5,28.61,SSW,202,2.6,2.6,91,0.00,CLR,,0.00,WeatherDisplay:10.37,2013-09-19 06:47:00,
2013-09-19 01:48:00,71.2,68.5,28.61,SSE,158,3.5,3.5,91,0.00,CLR,,0.00,WeatherDisplay:10.37,2013-09-19 06:48:00,
2013-09-19 01:50:00,71.2,68.5,28.61,South,180,3.5,3.5,91,0.00,CLR,,0.00,WeatherDisplay:10.37,2013-09-19 06:50:00,
2013-09-19 01:51:00,71.2,68.5,28.61,WSW,248,3.5,3.5,91,0.00,CLR,,0.00,WeatherDisplay:10.37,2013-09-19 06:51:00,
2013-09-19 01:52:00,71.2,68.5,28.61,SW,225,3.5,3.5,91,0.00,CLR,,0.00,WeatherDisplay:10.37,2013-09-19 06:52:00,
2013-09-19 01:53:00,71.2,68.5,28.61,South,180,3.5,3.5,91,0.00,CLR,,0.00,WeatherDisplay:10.37,2013-09-19 06:53:00,
2013-09-19 01:55:00,71.1,68.3,28.64,North,0,3.5,3.5,91,0.00,CLR,,0.00,WeatherDisplay:10.37,2013-09-19 06:55:00,
2013-09-19 01:57:00,71.1,68.3,28.64,SSW,202,3.5,3.5,91,0.00,CLR,,0.00,WeatherDisplay:10.37,2013-09-19 06:57:00,
2013-09-19 01:58:00,71.1,68.3,28.64,SSW,202,5.4,5.4,91,0.00,CLR,,0.00,WeatherDisplay:10.37,2013-09-19 06:58:00,
2013-09-19 02:00:00,71.2,68.5,28.64,South,180,4.6,4.6,91,0.00,CLR,,0.00,WeatherDisplay:10.37,2013-09-19 07:00:00,
2013-09-19 02:01:00,71.2,68.5,28.64,South,180,4.6,4.6,91,0.00,CLR,,0.00,WeatherDisplay:10.37,2013-09-19 07:01:00,
2013-09-19 02:02:00,71.2,68.5,28.64,South,180,4.3,4.3,91,0.00,CLR,,0.00,WeatherDisplay:10.37,2013-09-19 07:02:00,
2013-09-19 02:03:00,71.2,68.5,28.64,WSW,248,5.8,5.8,91,0.00,CLR,,0.00,WeatherDisplay:10.37,2013-09-19 07:03:00,
2013-09-19 02:05:00,71.4,68.7,28.64,NW,315,8.1,8.1,91,0.00,CLR,,0.00,WeatherDisplay:10.37,2013-09-19 07:05:00,
2013-09-19 02:06:00,71.2,68.5,28.64,SSE,158,2.3,2.3,91,0.00,CLR,,0.00,WeatherDisplay:10.37,2013-09-19 07:06:00,
2013-09-19 02:07:00,71.2,68.5,28.64,SSE,158,3.5,3.5,91,0.00,CLR,,0.00,WeatherDisplay:10.37,2013-09-19 07:07:00,
2013-09-19 02:08:00,71.2,68.5,28.64,South,180,3.5,3.5,91,0.00,CLR,,0.00,WeatherDisplay:10.37,2013-09-19 07:08:00,
2013-09-19 02:10:00,71.2,68.5,28.61,WSW,248,3.5,3.5,91,0.00,CLR,,0.00,WeatherDisplay:10.37,2013-09-19 07:10:00,
2013-09-19 02:11:00,71.2,68.5,28.61,SSW,202,5.8,5.8,91,0.00,CLR,,0.00,WeatherDisplay:10.37,2013-09-19 07:11:00,
2013-09-19 02:12:00,71.2,68.5,28.61,WSW,248,4.6,4.6,91,0.00,CLR,,0.00,WeatherDisplay:10.37,2013-09-19 07:12:00,
2013-09-19 02:13:00,71.2,68.5,28.61,SSE,158,4.6,4.6,91,0.00,CLR,,0.00,WeatherDisplay:10.37,2013-09-19 07:13:00,
2013-09-19 02:14:00,71.2,68.5,28.61,South,180,3.5,3.5,91,0.00,CLR,,0.00,WeatherDisplay:10.37,2013-09-19 07:14:00,
2013-09-19 02:16:00,71.2,68.5,28.61,SSW,202,5.8,5.8,91,0.00,CLR,,0.00,WeatherDisplay:10.37,2013-09-19 07:16:00,
2013-09-19 02:18:00,71.2,68.5,28.61,SSE,158,5.8,5.8,91,0.00,CLR,,0.00,WeatherDisplay:10.37,2013-09-19 07:18:00,
2013-09-19 02:19:00,71.2,68.5,28.61,SSW,202,3.5,3.5,91,0.00,CLR,,0.00,WeatherDisplay:10.37,2013-09-19 07:19:00,
2013-09-19 02:21:00,71.2,68.5,28.61,South,180,5.8,5.8,91,0.00,CLR,,0.00,WeatherDisplay:10.37,2013-09-19 07:21:00,
2013-09-19 02:23:00,71.2,68.5,28.61,SSE,158,5.8,5.8,91,0.00,CLR,,0.00,WeatherDisplay:10.37,2013-09-19 07:23:00,
2013-09-19 02:24:00,71.2,68.5,28.61,SSE,158,6.9,6.9,91,0.00,CLR,,0.00,WeatherDisplay:10.37,2013-09-19 07:24:00,
2013-09-19 02:26:00,71.2,68.5,28.61,SSE,158,4.6,4.6,91,0.00,CLR,,0.00,WeatherDisplay:10.37,2013-09-19 07:26:00,
2013-09-19 02:27:00,71.2,68.5,28.61,SSW,202,5.8,5.8,91,0.00,CLR,,0.00,WeatherDisplay:10.37,2013-09-19 07:27:00,
2013-09-19 02:28:00,71.2,68.5,28.61,SSE,158,5.8,5.8,91,0.00,CLR,,0.00,WeatherDisplay:10.37,2013-09-19 07:28:00,
2013-09-19 02:29:00,71.2,68.5,28.61,SE,135,4.6,4.6,91,0.00,CLR,,0.00,WeatherDisplay:10.37,2013-09-19 07:29:00,
2013-09-19 02:31:00,71.2,68.5,28.61,SW,225,4.6,4.6,91,0.00,CLR,,0.00,WeatherDisplay:10.37,2013-09-19 07:31:00,
2013-09-19 02:32:00,71.2,68.5,28.61,SSW,202,3.5,3.5,91,0.00,CLR,,0.00,WeatherDisplay:10.37,2013-09-19 07:32:00,
2013-09-19 02:34:00,71.2,68.5,28.61,South,180,5.8,5.8,91,0.00,CLR,,0.00,WeatherDisplay:10.37,2013-09-19 07:34:00,
2013-09-19 02:36:00,71.1,68.3,28.61,South,180,5.8,5.8,91,0.00,CLR,,0.00,WeatherDisplay:10.37,2013-09-19 07:36:00,
2013-09-19 02:37:00,71.2,68.5,28.61,SE,135,5.8,5.8,91,0.00,CLR,,0.00,WeatherDisplay:10.37,2013-09-19 07:37:00,
2013-09-19 02:39:00,71.2,68.5,28.61,SE,135,8.1,8.1,91,0.00,CLR,,0.00,WeatherDisplay:10.37,2013-09-19 07:39:00,
2013-09-19 02:41:00,71.1,68.3,28.61,SW,225,3.5,3.5,91,0.00,CLR,,0.00,WeatherDisplay:10.37,2013-09-19 07:41:00,
2013-09-19 02:42:00,71.1,68.3,28.61,SSE,158,6.9,6.9,91,0.00,CLR,,0.00,WeatherDisplay:10.37,2013-09-19 07:42:00,
2013-09-19 02:45:00,71.2,68.5,28.61,SSE,158,3.5,3.5,91,0.00,CLR,,0.00,WeatherDisplay:10.37,2013-09-19 07:45:00,
2013-09-19 02:46:00,71.1,68.3,28.61,South,180,5.6,5.6,91,0.00,CLR,,0.00,WeatherDisplay:10.37,2013-09-19 07:46:00,
2013-09-19 02:48:00,71.1,68.3,28.61,South,180,4.6,4.6,91,0.00,CLR,,0.00,WeatherDisplay:10.37,2013-09-19 07:48:00,
2013-09-19 02:50:00,71.1,68.3,28.61,NNE,22,3.5,3.5,91,0.00,CLR,,0.00,WeatherDisplay:10.37,2013-09-19 07:50:00,
2013-09-19 02:51:00,71.1,68.3,28.61,WNW,292,3.5,3.5,91,0.00,CLR,,0.00,WeatherDisplay:10.37,2013-09-19 07:51:00,
2013-09-19 02:53:00,71.1,68.3,28.61,South,180,3.6,3.6,91,0.00,CLR,,0.00,WeatherDisplay:10.37,2013-09-19 07:53:00,
2013-09-19 02:55:00,71.1,68.3,28.61,SSW,202,3.5,3.5,91,0.00,CLR,,0.00,WeatherDisplay:10.37,2013-09-19 07:55:00,
2013-09-19 02:57:00,71.1,68.3,28.61,West,270,3.5,3.5,91,0.00,CLR,,0.00,WeatherDisplay:10.37,2013-09-19 07:57:00,
2013-09-19 02:58:00,71.1,68.3,28.61,WSW,248,2.3,2.3,91,0.00,CLR,,0.00,WeatherDisplay:10.37,2013-09-19 07:58:00,
2013-09-19 03:00:00,71.0,68.3,28.61,SSW,208,1.0,5.0,91,0.00,CLR,,0.00,WeatherDisplay:10.37,2013-09-19 08:00:00,
2013-09-19 03:01:00,70.9,68.1,28.61,SW,225,2.3,2.3,91,0.00,CLR,,0.00,WeatherDisplay:10.37,2013-09-19 08:01:00,
2013-09-19 03:02:00,70.9,68.1,28.61,SE,135,2.3,2.3,91,0.00,CLR,,0.00,WeatherDisplay:10.37,2013-09-19 08:02:00,
2013-09-19 03:04:00,70.9,68.1,28.61,SSW,202,3.5,3.5,91,0.00,CLR,,0.00,WeatherDisplay:10.37,2013-09-19 08:04:00,
2013-09-19 03:05:00,70.7,67.9,28.61,WSW,248,2.3,2.3,91,0.00,CLR,,0.00,WeatherDisplay:10.37,2013-09-19 08:05:00,
2013-09-19 03:06:00,70.7,67.9,28.61,SSE,158,3.8,3.8,91,0.00,CLR,,0.00,WeatherDisplay:10.37,2013-09-19 08:06:00,
2013-09-19 03:07:00,70.7,67.9,28.61,SSW,202,3.5,3.5,91,0.00,CLR,,0.00,WeatherDisplay:10.37,2013-09-19 08:07:00,
2013-09-19 03:08:00,70.7,67.9,28.61,SSW,202,3.5,3.5,91,0.00,CLR,,0.00,WeatherDisplay:10.37,2013-09-19 08:08:00,
2013-09-19 03:09:00,70.7,67.9,28.61,SSW,202,5.8,5.8,91,0.00,CLR,,0.00,WeatherDisplay:10.37,2013-09-19 08:09:00,
2013-09-19 03:10:00,70.8,68.0,28.61,SSW,194,3.0,6.0,91,0.00,CLR,,0.00,WeatherDisplay:10.37,2013-09-19 08:10:00,
2013-09-19 03:11:00,70.9,68.1,28.61,SW,225,5.8,5.8,91,0.00,CLR,,0.00,WeatherDisplay:10.37,2013-09-19 08:11:00,
2013-09-19 03:13:00,70.9,68.1,28.61,SSW,202,1.2,0.0,91,0.00,CLR,,0.00,WeatherDisplay:10.37,2013-09-19 08:13:00,
2013-09-19 03:14:00,70.7,67.9,28.61,SSE,158,3.8,3.8,91,0.00,CLR,,0.00,WeatherDisplay:10.37,2013-09-19 08:14:00,
2013-09-19 03:15:00,70.7,67.9,28.61,SE,135,4.6,4.6,91,0.00,CLR,,0.00,WeatherDisplay:10.37,2013-09-19 08:15:00,
2013-09-19 03:16:00,70.7,67.9,28.61,WSW,248,2.3,2.3,91,0.00,CLR,,0.00,WeatherDisplay:10.37,2013-09-19 08:16:00,
2013-09-19 03:18:00,70.7,67.9,28.61,SSW,202,3.6,3.6,91,0.00,CLR,,0.00,WeatherDisplay:10.37,2013-09-19 08:18:00,
2013-09-19 03:19:00,70.7,67.9,28.61,WNW,292,3.5,3.5,91,0.00,CLR,,0.00,WeatherDisplay:10.37,2013-09-19 08:19:00,
2013-09-19 03:21:00,70.7,67.9,28.61,North,0,4.0,4.0,91,0.00,CLR,,0.00,WeatherDisplay:10.37,2013-09-19 08:21:00,
2013-09-19 03:23:00,70.7,68.3,28.61,SE,135,5.8,5.8,92,0.00,CLR,,0.00,WeatherDisplay:10.37,2013-09-19 08:23:00,
2013-09-19 03:24:00,70.9,68.4,28.61,SSE,158,4.6,4.6,92,0.00,CLR,,0.00,WeatherDisplay:10.37,2013-09-19 08:24:00,
2013-09-19 03:26:00,71.1,68.6,28.58,WSW,248,10.4,10.4,92,0.00,CLR,,0.00,WeatherDisplay:10.37,2013-09-19 08:26:00,
2013-09-19 03:27:00,71.1,68.6,28.58,South,180,10.4,10.4,92,0.00,CLR,,0.00,WeatherDisplay:10.37,2013-09-19 08:27:00,
2013-09-19 03:28:00,71.2,68.8,28.58,NNE,22,4.6,4.6,92,0.00,CLR,,0.00,WeatherDisplay:10.37,2013-09-19 08:28:00,
2013-09-19 03:29:00,71.2,68.8,28.58,SSE,158,4.6,4.6,92,0.00,CLR,,0.00,WeatherDisplay:10.37,2013-09-19 08:29:00,
2013-09-19 03:31:00,71.2,68.5,28.58,SSE,158,4.6,4.6,91,0.00,CLR,,0.00,WeatherDisplay:10.37,2013-09-19 08:31:00,
2013-09-19 03:32:00,71.2,68.5,28.58,West,270,4.6,4.6,91,0.00,CLR,,0.00,WeatherDisplay:10.37,2013-09-19 08:32:00,
2013-09-19 03:33:00,71.4,68.7,28.58,ESE,112,5.8,5.8,91,0.00,CLR,,0.00,WeatherDisplay:10.37,2013-09-19 08:33:00,
2013-09-19 03:35:00,71.4,68.7,28.58,SSW,202,5.9,5.9,91,0.00,CLR,,0.00,WeatherDisplay:10.37,2013-09-19 08:35:00,
2013-09-19 03:36:00,71.6,68.8,28.58,SW,225,5.8,5.8,91,0.00,CLR,,0.00,WeatherDisplay:10.37,2013-09-19 08:36:00,
2013-09-19 03:37:00,71.6,68.8,28.58,South,180,5.8,5.8,91,0.00,CLR,,0.00,WeatherDisplay:10.37,2013-09-19 08:37:00,
2013-09-19 03:38:00,71.6,68.5,28.58,SW,225,5.8,5.8,90,0.00,CLR,,0.00,WeatherDisplay:10.37,2013-09-19 08:38:00,
2013-09-19 03:40:00,71.6,68.5,28.58,SW,225,5.8,5.8,90,0.00,CLR,,0.00,WeatherDisplay:10.37,2013-09-19 08:40:00,
2013-09-19 03:41:00,71.6,68.5,28.58,NW,315,3.5,3.5,90,0.00,CLR,,0.00,WeatherDisplay:10.37,2013-09-19 08:41:00,
2013-09-19 03:42:00,71.6,68.5,28.58,WSW,248,3.5,3.5,90,0.00,CLR,,0.00,WeatherDisplay:10.37,2013-09-19 08:42:00,
2013-09-19 03:43:00,71.6,68.5,28.58,WNW,292,3.5,3.5,90,0.00,CLR,,0.00,WeatherDisplay:10.37,2013-09-19 08:43:00,
2013-09-19 03:45:00,71.8,68.7,28.58,SSE,158,9.2,9.2,90,0.00,CLR,,0.00,WeatherDisplay:10.37,2013-09-19 08:45:00,
2013-09-19 03:46:00,71.8,68.7,28.58,SSW,202,5.8,5.8,90,0.00,CLR,,0.00,WeatherDisplay:10.37,2013-09-19 08:46:00,
2013-09-19 03:47:00,72.0,68.9,28.58,SSW,202,4.6,4.6,90,0.00,CLR,,0.00,WeatherDisplay:10.37,2013-09-19 08:47:00,
2013-09-19 03:49:00,72.0,68.9,28.58,WSW,248,3.5,4.3,90,0.00,CLR,,0.00,WeatherDisplay:10.37,2013-09-19 08:49:00,
2013-09-19 03:50:00,72.0,68.9,28.58,SSW,202,9.2,9.2,90,0.00,CLR,,0.00,WeatherDisplay:10.37,2013-09-19 08:50:00,
2013-09-19 03:51:00,72.0,68.9,28.58,South,180,15.0,15.0,90,0.00,CLR,,0.00,WeatherDisplay:10.37,2013-09-19 08:51:00,
2013-09-19 03:52:00,72.0,68.9,28.58,NW,315,4.6,4.6,90,0.00,CLR,,0.00,WeatherDisplay:10.37,2013-09-19 08:52:00,
2013-09-19 03:53:00,71.8,68.7,28.58,West,270,4.6,4.6,90,0.00,CLR,,0.00,WeatherDisplay:10.37,2013-09-19 08:53:00,
2013-09-19 03:54:00,71.8,68.7,28.58,SSW,202,5.6,5.6,90,0.00,CLR,,0.00,WeatherDisplay:10.37,2013-09-19 08:54:00,
2013-09-19 03:55:00,71.8,68.7,28.61,SW,225,6.4,6.4,90,0.00,CLR,,0.00,WeatherDisplay:10.37,2013-09-19 08:55:00,
2013-09-19 03:56:00,71.6,68.5,28.61,SE,135,6.9,6.9,90,0.00,CLR,,0.00,WeatherDisplay:10.37,2013-09-19 08:56:00,
2013-09-19 03:57:00,71.6,68.5,28.61,North,0,7.1,7.1,90,0.00,CLR,,0.01,WeatherDisplay:10.37,2013-09-19 08:57:00,
2013-09-19 03:58:00,71.6,68.5,28.61,NE,45,10.4,10.4,90,0.01,RA,,0.01,WeatherDisplay:10.37,2013-09-19 08:58:00,
2013-09-19 03:59:00,71.6,68.5,28.61,NNW,338,10.4,10.4,90,0.01,RA,,0.01,WeatherDisplay:10.37,2013-09-19 08:59:00,
2013-09-19 04:00:00,71.2,68.2,28.61,SSW,202,5.8,5.8,90,0.01,RA,,0.01,WeatherDisplay:10.37,2013-09-19 09:00:00,
2013-09-19 04:01:00,71.1,68.0,28.61,WSW,248,6.9,6.9,90,0.01,RA,,0.01,WeatherDisplay:10.37,2013-09-19 09:01:00,
2013-09-19 04:02:00,70.7,67.3,28.61,South,180,4.9,4.9,89,0.01,RA,,0.01,WeatherDisplay:10.37,2013-09-19 09:02:00,
2013-09-19 04:03:00,70.7,67.3,28.61,SSW,202,7.6,7.6,89,0.01,RA,,0.02,WeatherDisplay:10.37,2013-09-19 09:03:00,
2013-09-19 04:04:00,70.3,66.6,28.61,WSW,248,8.1,8.1,88,0.02,RA,,0.02,WeatherDisplay:10.37,2013-09-19 09:04:00,
2013-09-19 04:05:00,70.0,64.9,28.61,WSW,248,9.2,9.2,84,0.02,RA,,0.02,WeatherDisplay:10.37,2013-09-19 09:05:00,
2013-09-19 04:06:00,69.6,63.5,28.61,SSE,158,10.4,10.4,81,0.02,RA,,0.02,WeatherDisplay:10.37,2013-09-19 09:06:00,
2013-09-19 04:08:00,69.4,63.4,28.61,WSW,248,6.9,6.9,81,0.02,RA,,0.04,WeatherDisplay:10.37,2013-09-19 09:08:00,
2013-09-19 04:10:00,68.9,62.8,28.61,South,180,9.7,9.7,81,0.04,RA,,0.04,WeatherDisplay:10.37,2013-09-19 09:10:00,
2013-09-19 04:13:00,68.7,61.9,28.61,WSW,248,15.0,15.0,79,0.05,RA,,0.05,WeatherDisplay:10.37,2013-09-19 09:13:00,
2013-09-19 04:14:00,68.7,61.9,28.61,West,270,6.9,6.9,79,0.05,RA,,0.05,WeatherDisplay:10.37,2013-09-19 09:14:00,
2013-09-19 04:15:00,68.5,62.1,28.61,SE,135,6.9,6.9,80,0.05,RA,,0.05,WeatherDisplay:10.37,2013-09-19 09:15:00,
2013-09-19 04:18:00,68.2,61.8,28.61,SSE,158,8.1,8.1,80,0.05,RA,,0.06,WeatherDisplay:10.37,2013-09-19 09:18:00,
2013-09-19 04:19:00,68.2,61.8,28.61,WSW,248,8.1,8.1,80,0.06,RA,,0.06,WeatherDisplay:10.37,2013-09-19 09:19:00,
2013-09-19 04:20:00,67.8,61.4,28.61,South,180,7.6,7.6,80,0.06,RA,,0.06,WeatherDisplay:10.37,2013-09-19 09:20:00,
2013-09-19 04:21:00,67.8,61.4,28.61,South,180,14.7,14.7,80,0.06,RA,,0.07,WeatherDisplay:10.37,2013-09-19 09:21:00,
2013-09-19 04:23:00,67.6,61.9,28.61,SW,225,6.9,6.9,82,0.07,RA,,0.07,WeatherDisplay:10.37,2013-09-19 09:23:00,
2013-09-19 04:24:00,67.6,62.3,28.61,South,180,5.8,5.8,83,0.07,RA,,0.07,WeatherDisplay:10.37,2013-09-19 09:24:00,
2013-09-19 04:25:00,67.1,61.1,28.64,NW,315,7.1,7.1,81,0.09,RA,,0.13,WeatherDisplay:10.37,2013-09-19 09:25:00,
2013-09-19 04:26:00,67.1,61.1,28.64,WSW,248,10.4,10.4,81,0.13,RA,,0.17,WeatherDisplay:10.37,2013-09-19 09:26:00,
2013-09-19 04:29:00,66.4,60.7,28.64,SSW,202,7.4,7.4,82,0.22,RA,,0.22,WeatherDisplay:10.37,2013-09-19 09:29:00,
2013-09-19 04:30:00,66.2,61.6,28.64,SE,135,6.9,6.9,85,0.32,RA,,0.32,WeatherDisplay:10.37,2013-09-19 09:30:00,
2013-09-19 04:32:00,66.2,61.6,28.64,NW,315,4.6,4.6,85,0.35,RA,,0.36,WeatherDisplay:10.37,2013-09-19 09:32:00,
2013-09-19 04:34:00,66.0,62.7,28.64,NNW,338,3.5,3.5,89,0.38,RA,,0.38,WeatherDisplay:10.37,2013-09-19 09:34:00,
2013-09-19 04:35:00,65.8,62.5,28.64,SSW,202,3.5,3.5,89,0.38,RA,,0.38,WeatherDisplay:10.37,2013-09-19 09:35:00,
2013-09-19 04:36:00,65.8,62.5,28.64,SSW,202,3.5,3.5,89,0.38,RA,,0.38,WeatherDisplay:10.37,2013-09-19 09:36:00,
2013-09-19 04:37:00,65.8,62.8,28.64,ENE,68,2.6,2.6,90,0.38,RA,,0.38,WeatherDisplay:10.37,2013-09-19 09:37:00,
2013-09-19 04:39:00,65.8,63.1,28.64,SSW,202,5.8,5.8,91,0.38,RA,,0.38,WeatherDisplay:10.37,2013-09-19 09:39:00,
2013-09-19 04:40:00,65.8,63.1,28.61,SSW,202,3.5,3.5,91,0.38,RA,,0.38,WeatherDisplay:10.37,2013-09-19 09:40:00,
2013-09-19 04:41:00,65.8,63.1,28.61,South,180,3.5,3.5,91,0.38,RA,,0.38,WeatherDisplay:10.37,2013-09-19 09:41:00,
2013-09-19 04:42:00,65.8,63.5,28.61,ESE,112,3.5,3.5,92,0.38,RA,,0.38,WeatherDisplay:10.37,2013-09-19 09:42:00,
2013-09-19 04:44:00,65.8,63.5,28.61,North,0,5.8,5.8,92,0.39,RA,,0.39,WeatherDisplay:10.37,2013-09-19 09:44:00,
2013-09-19 04:45:00,65.8,63.5,28.61,NNW,338,5.8,5.8,92,0.39,RA,,0.39,WeatherDisplay:10.37,2013-09-19 09:45:00,
2013-09-19 04:46:00,65.8,63.5,28.61,North,0,4.6,4.6,92,0.39,RA,,0.39,WeatherDisplay:10.37,2013-09-19 09:46:00,
2013-09-19 04:47:00,65.7,63.3,28.61,NNE,22,3.5,3.5,92,0.39,RA,,0.39,WeatherDisplay:10.37,2013-09-19 09:47:00,
2013-09-19 04:49:00,65.7,63.3,28.61,NNE,22,0.0,0.0,92,0.39,RA,,0.39,WeatherDisplay:10.37,2013-09-19 09:49:00,
2013-09-19 04:50:00,65.7,63.3,28.61,NNE,22,0.0,0.0,92,0.39,RA,,0.39,WeatherDisplay:10.37,2013-09-19 09:50:00,
2013-09-19 04:51:00,65.7,63.3,28.61,NNE,22,0.0,0.0,92,0.40,RA,,0.40,WeatherDisplay:10.37,2013-09-19 09:51:00,
2013-09-19 04:52:00,65.7,63.6,28.61,SW,225,2.6,2.6,93,0.40,RA,,0.40,WeatherDisplay:10.37,2013-09-19 09:52:00,
2013-09-19 04:55:00,65.7,63.6,28.61,SSW,202,2.6,2.6,93,0.42,RA,,0.42,WeatherDisplay:10.37,2013-09-19 09:55:00,
2013-09-19 04:56:00,65.7,63.6,28.61,West,270,2.3,2.4,93,0.42,RA,,0.43,WeatherDisplay:10.37,2013-09-19 09:56:00,
2013-09-19 04:57:00,65.7,63.6,28.61,SW,225,1.4,0.0,93,0.47,RA,,0.49,WeatherDisplay:10.37,2013-09-19 09:57:00,
2013-09-19 05:00:00,65.8,64.1,28.61,SW,225,2.3,2.3,94,0.57,RA,,0.58,WeatherDisplay:10.37,2013-09-19 10:00:00,
2013-09-19 05:01:00,66.2,65.0,28.61,South,180,4.9,4.9,96,0.61,RA,,0.67,WeatherDisplay:10.37,2013-09-19 10:01:00,
2013-09-19 05:03:00,66.7,65.9,28.61,SW,225,6.0,6.0,97,0.65,RA,,0.68,WeatherDisplay:10.37,2013-09-19 10:03:00,
2013-09-19 05:05:00,66.7,65.9,28.61,NW,315,11.5,11.5,97,0.72,RA,,0.75,WeatherDisplay:10.37,2013-09-19 10:05:00,
2013-09-19 05:07:00,69.1,68.5,28.61,SW,225,10.4,10.4,98,0.72,RA,,0.75,WeatherDisplay:10.37,2013-09-19 10:07:00,
2013-09-19 05:08:00,69.3,68.7,28.61,SSE,158,6.4,6.4,98,0.72,RA,,0.75,WeatherDisplay:10.37,2013-09-19 10:08:00,
2013-09-19 05:10:00,68.2,67.6,28.58,West,270,9.2,9.2,98,0.71,RA,,0.75,WeatherDisplay:10.37,2013-09-19 10:10:00,
2013-09-19 05:12:00,68.0,67.4,28.58,SE,135,4.6,4.6,98,0.70,RA,,0.75,WeatherDisplay:10.37,2013-09-19 10:12:00,
2013-09-19 05:13:00,67.8,67.2,28.58,WNW,292,4.6,4.6,98,0.70,RA,,0.75,WeatherDisplay:10.37,2013-09-19 10:13:00,
2013-09-19 05:15:00,67.6,67.1,28.58,West,270,2.3,2.3,98,0.70,,,0.75,WeatherDisplay:10.37,2013-09-19 10:15:00,
2013-09-19 05:16:00,67.6,67.1,28.58,West,270,2.3,2.3,98,0.70,,,0.75,WeatherDisplay:10.37,2013-09-19 10:16:00,
2013-09-19 05:17:00,67.6,67.1,28.58,SSW,202,3.5,3.5,98,0.70,CLR,,0.75,WeatherDisplay:10.37,2013-09-19 10:17:00,
2013-09-19 05:18:00,67.5,66.9,28.58,WSW,248,3.5,3.5,98,0.69,CLR,,0.75,WeatherDisplay:10.37,2013-09-19 10:18:00,
2013-09-19 05:21:00,67.5,66.9,28.58,SW,225,1.4,1.4,98,0.69,CLR,,0.75,WeatherDisplay:10.37,2013-09-19 10:21:00,
2013-09-19 05:22:00,67.3,66.7,28.58,SSE,158,1.2,0.0,98,0.68,CLR,,0.75,WeatherDisplay:10.37,2013-09-19 10:22:00,
2013-09-19 05:23:00,67.3,66.7,28.58,WSW,248,1.4,0.0,98,0.68,CLR,,0.75,WeatherDisplay:10.37,2013-09-19 10:23:00,
2013-09-19 05:26:00,67.1,66.5,28.61,SE,135,3.5,3.5,98,0.62,CLR,,0.75,WeatherDisplay:10.37,2013-09-19 10:26:00,
2013-09-19 05:27:00,66.9,66.3,28.61,SSE,158,2.3,2.3,98,0.54,CLR,,0.75,WeatherDisplay:10.37,2013-09-19 10:27:00,
2013-09-19 05:28:00,66.7,66.2,28.61,SW,225,2.4,2.4,98,0.53,CLR,,0.75,WeatherDisplay:10.37,2013-09-19 10:28:00,
2013-09-19 05:31:00,66.7,66.2,28.61,ESE,112,2.3,2.3,98,0.40,CLR,,0.75,WeatherDisplay:10.37,2013-09-19 10:31:00,
2013-09-19 05:32:00,66.7,66.2,28.61,ESE,112,2.3,0.0,98,0.39,CLR,,0.75,WeatherDisplay:10.37,2013-09-19 10:32:00,
2013-09-19 05:33:00,66.7,66.2,28.61,ESE,112,0.0,0.0,98,0.37,CLR,,0.75,WeatherDisplay:10.37,2013-09-19 10:33:00,
2013-09-19 05:34:00,66.7,66.2,28.61,ESE,112,0.0,0.0,98,0.37,CLR,,0.75,WeatherDisplay:10.37,2013-09-19 10:34:00,
2013-09-19 05:36:00,66.6,66.0,28.61,WSW,248,1.2,0.0,98,0.37,CLR,,0.75,WeatherDisplay:10.37,2013-09-19 10:36:00,
2013-09-19 05:37:00,66.6,66.0,28.61,NW,315,0.0,0.0,98,0.37,CLR,,0.75,WeatherDisplay:10.37,2013-09-19 10:37:00,
2013-09-19 05:39:00,66.6,66.0,28.61,NW,315,0.0,0.0,98,0.37,CLR,,0.75,WeatherDisplay:10.37,2013-09-19 10:39:00,
2013-09-19 05:41:00,66.4,65.8,28.61,East,90,0.0,0.0,98,0.37,CLR,,0.75,WeatherDisplay:10.37,2013-09-19 10:41:00,
2013-09-19 05:42:00,66.4,65.8,28.61,ENE,68,0.0,0.0,98,0.37,CLR,,0.75,WeatherDisplay:10.37,2013-09-19 10:42:00,
2013-09-19 05:44:00,66.4,65.8,28.61,ENE,68,0.0,0.0,98,0.36,CLR,,0.75,WeatherDisplay:10.37,2013-09-19 10:44:00,
2013-09-19 05:45:00,66.4,65.8,28.61,ENE,68,0.0,0.0,98,0.36,CLR,,0.75,WeatherDisplay:10.37,2013-09-19 10:45:00,
2013-09-19 05:46:00,66.4,65.8,28.61,ESE,112,2.4,2.6,98,0.36,CLR,,0.75,WeatherDisplay:10.37,2013-09-19 10:46:00,
2013-09-19 05:47:00,66.6,66.0,28.61,East,90,3.5,3.5,98,0.36,CLR,,0.75,WeatherDisplay:10.37,2013-09-19 10:47:00,
2013-09-19 05:49:00,66.6,66.0,28.61,ESE,112,2.4,2.4,98,0.36,CLR,,0.75,WeatherDisplay:10.37,2013-09-19 10:49:00,
2013-09-19 05:50:00,66.6,66.0,28.61,SE,135,2.3,2.3,98,0.36,CLR,,0.75,WeatherDisplay:10.37,2013-09-19 10:50:00,
2013-09-19 05:52:00,66.6,66.0,28.61,SSE,158,3.5,3.5,98,0.35,CLR,,0.75,WeatherDisplay:10.37,2013-09-19 10:52:00,
2013-09-19 05:55:00,66.4,65.8,28.61,SSE,158,4.6,4.6,98,0.33,CLR,,0.75,WeatherDisplay:10.37,2013-09-19 10:55:00,
2013-09-19 05:57:00,66.4,65.8,28.61,SE,135,4.0,4.0,98,0.31,CLR,,0.75,WeatherDisplay:10.37,2013-09-19 10:57:00,
2013-09-19 06:00:00,66.6,66.0,28.61,SSE,158,5.9,5.9,98,0.16,CLR,,0.75,WeatherDisplay:10.37,2013-09-19 11:00:00,
2013-09-19 06:02:00,66.6,66.0,28.61,SE,135,5.8,5.8,98,0.13,CLR,,0.75,WeatherDisplay:10.37,2013-09-19 11:02:00,
2013-09-19 06:03:00,66.6,66.0,28.61,SSE,158,2.3,2.3,98,0.04,CLR,,0.75,WeatherDisplay:10.37,2013-09-19 11:03:00,
2013-09-19 06:05:00,66.6,66.0,28.61,SE,135,2.3,2.3,98,0.00,CLR,,0.75,WeatherDisplay:10.37,2013-09-19 11:05:00,
2013-09-19 06:06:00,66.6,66.0,28.61,SE,135,2.3,2.3,98,0.00,CLR,,0.75,WeatherDisplay:10.37,2013-09-19 11:06:00,
2013-09-19 06:07:00,66.6,66.0,28.61,SSE,158,2.2,0.0,98,0.00,CLR,,0.75,WeatherDisplay:10.37,2013-09-19 11:07:00,
2013-09-19 06:08:00,66.6,66.0,28.61,SSE,158,2.3,2.3,98,0.00,CLR,,0.75,WeatherDisplay:10.37,2013-09-19 11:08:00,
2013-09-19 06:09:00,66.6,66.0,28.61,SSE,158,2.3,2.3,98,0.00,CLR,,0.75,WeatherDisplay:10.37,2013-09-19 11:09:00,
2013-09-19 06:11:00,66.7,66.2,28.61,SSE,158,1.2,0.0,98,0.00,CLR,,0.75,WeatherDisplay:10.37,2013-09-19 11:11:00,
2013-09-19 06:12:00,66.7,66.2,28.61,South,180,4.6,4.6,98,0.00,CLR,,0.75,WeatherDisplay:10.37,2013-09-19 11:12:00,
2013-09-19 06:14:00,66.7,66.2,28.61,SE,135,2.3,2.3,98,0.00,CLR,,0.75,WeatherDisplay:10.37,2013-09-19 11:14:00,
2013-09-19 06:16:00,66.7,66.2,28.61,East,90,3.5,3.5,98,0.00,CLR,,0.75,WeatherDisplay:10.37,2013-09-19 11:16:00,
2013-09-19 06:17:00,66.7,66.2,28.61,East,90,2.3,2.3,98,0.00,CLR,,0.75,WeatherDisplay:10.37,2013-09-19 11:17:00,
2013-09-19 06:19:00,66.7,66.2,28.61,East,90,1.2,0.0,98,0.00,CLR,,0.75,WeatherDisplay:10.37,2013-09-19 11:19:00,
2013-09-19 06:20:00,66.7,66.2,28.61,East,90,0.0,0.0,98,0.00,CLR,,0.75,WeatherDisplay:10.37,2013-09-19 11:20:00,
2013-09-19 06:21:00,66.6,66.0,28.61,ESE,112,0.0,0.0,98,0.00,CLR,,0.75,WeatherDisplay:10.37,2013-09-19 11:21:00,
2013-09-19 06:22:00,66.6,66.0,28.61,ESE,112,0.0,0.0,98,0.00,CLR,,0.75,WeatherDisplay:10.37,2013-09-19 11:22:00,
2013-09-19 06:24:00,66.7,66.2,28.61,ESE,112,0.0,0.0,98,0.00,CLR,,0.75,WeatherDisplay:10.37,2013-09-19 11:24:00,
2013-09-19 06:25:00,66.7,66.2,28.61,ESE,112,0.0,0.0,98,0.00,CLR,,0.75,WeatherDisplay:10.37,2013-09-19 11:25:00,
2013-09-19 06:27:00,66.7,66.2,28.61,ESE,112,0.0,0.0,98,0.00,CLR,,0.75,WeatherDisplay:10.37,2013-09-19 11:27:00,
2013-09-19 06:29:00,66.7,66.2,28.61,East,90,1.2,1.2,98,0.00,CLR,,0.75,WeatherDisplay:10.37,2013-09-19 11:29:00,
2013-09-19 06:30:00,66.9,66.3,28.61,East,90,0.0,0.0,98,0.00,CLR,,0.75,WeatherDisplay:10.37,2013-09-19 11:30:00,
2013-09-19 06:32:00,67.1,66.5,28.61,East,90,0.0,0.0,98,0.00,CLR,,0.75,WeatherDisplay:10.37,2013-09-19 11:32:00,
2013-09-19 06:33:00,67.1,66.5,28.61,SE,135,2.6,0.0,98,0.00,CLR,,0.75,WeatherDisplay:10.37,2013-09-19 11:33:00,
2013-09-19 06:35:00,67.3,66.7,28.61,SE,135,3.5,3.5,98,0.00,CLR,,0.75,WeatherDisplay:10.37,2013-09-19 11:35:00,
2013-09-19 06:37:00,67.3,66.7,28.61,ENE,68,1.4,1.4,98,0.00,CLR,,0.75,WeatherDisplay:10.37,2013-09-19 11:37:00,
2013-09-19 06:38:00,67.3,66.7,28.61,SE,135,1.6,1.6,98,0.00,CLR,,0.75,WeatherDisplay:10.37,2013-09-19 11:38:00,
2013-09-19 06:40:00,67.6,67.1,28.58,SSE,158,5.8,5.8,98,0.00,CLR,,0.75,WeatherDisplay:10.37,2013-09-19 11:40:00,
2013-09-19 06:43:00,68.0,67.4,28.58,SE,135,4.6,4.6,98,0.00,CLR,,0.75,WeatherDisplay:10.37,2013-09-19 11:43:00,
2013-09-19 06:44:00,68.2,67.6,28.58,SSE,158,8.5,8.5,98,0.00,CLR,,0.75,WeatherDisplay:10.37,2013-09-19 11:44:00,
2013-09-19 06:45:00,68.4,67.8,28.58,SE,135,8.1,8.1,98,0.00,CLR,,0.75,WeatherDisplay:10.37,2013-09-19 11:45:00,
2013-09-19 06:48:00,68.2,67.6,28.58,South,180,2.4,2.4,98,0.00,CLR,,0.75,WeatherDisplay:10.37,2013-09-19 11:48:00,
2013-09-19 06:49:00,68.2,67.6,28.58,SE,135,2.3,2.3,98,0.00,CLR,,0.75,WeatherDisplay:10.37,2013-09-19 11:49:00,
2013-09-19 06:50:00,68.4,67.8,28.58,SSE,158,3.3,3.3,98,0.00,CLR,,0.75,WeatherDisplay:10.37,2013-09-19 11:50:00,
2013-09-19 06:53:00,68.7,68.1,28.58,SSE,158,8.7,8.7,98,0.00,CLR,,0.75,WeatherDisplay:10.37,2013-09-19 11:53:00,
2013-09-19 06:54:00,68.7,68.1,28.58,SSE,158,9.2,9.2,98,0.00,CLR,,0.75,WeatherDisplay:10.37,2013-09-19 11:54:00,
2013-09-19 06:55:00,68.7,68.1,28.61,SE,135,6.4,6.4,98,0.00,CLR,,0.75,WeatherDisplay:10.37,2013-09-19 11:55:00,
2013-09-19 06:58:00,68.7,68.1,28.61,ESE,112,5.8,5.8,98,0.00,CLR,,0.75,WeatherDisplay:10.37,2013-09-19 11:58:00,
2013-09-19 06:59:00,68.7,68.1,28.61,SSE,158,4.6,4.6,98,0.00,CLR,,0.75,WeatherDisplay:10.37,2013-09-19 11:59:00,
2013-09-19 07:00:00,68.7,68.1,28.61,South,180,4.9,4.9,98,0.00,CLR,,0.75,WeatherDisplay:10.37,2013-09-19 12:00:00,
2013-09-19 07:01:00,68.7,68.1,28.61,SSW,202,4.6,4.6,98,0.00,CLR,,0.75,WeatherDisplay:10.37,2013-09-19 12:01:00,
2013-09-19 07:03:00,68.9,68.3,28.61,WSW,248,4.6,4.6,98,0.00,CLR,,0.75,WeatherDisplay:10.37,2013-09-19 12:03:00,
2013-09-19 07:05:00,69.1,68.5,28.61,SW,225,2.3,2.3,98,0.00,CLR,,0.75,WeatherDisplay:10.37,2013-09-19 12:05:00,
2013-09-19 07:06:00,69.1,68.5,28.61,North,0,2.3,2.3,98,0.00,CLR,,0.75,WeatherDisplay:10.37,2013-09-19 12:06:00,
2013-09-19 07:08:00,69.3,68.7,28.61,SSE,158,5.8,5.8,98,0.00,CLR,,0.75,WeatherDisplay:10.37,2013-09-19 12:08:00,
2013-09-19 07:10:00,69.3,68.7,28.61,South,180,5.8,5.8,98,0.00,CLR,,0.75,WeatherDisplay:10.37,2013-09-19 12:10:00,
2013-09-19 07:11:00,69.3,68.7,28.61,SSE,158,3.5,3.5,98,0.00,CLR,,0.75,WeatherDisplay:10.37,2013-09-19 12:11:00,
2013-09-19 07:13:00,69.3,68.7,28.61,WNW,292,3.5,3.5,98,0.00,CLR,,0.75,WeatherDisplay:10.37,2013-09-19 12:13:00,
2013-09-19 07:15:00,69.3,68.7,28.61,WNW,292,2.3,0.0,98,0.00,CLR,,0.75,WeatherDisplay:10.37,2013-09-19 12:15:00,
2013-09-19 07:16:00,69.3,68.7,28.61,WSW,248,0.0,0.0,98,0.00,CLR,,0.75,WeatherDisplay:10.37,2013-09-19 12:16:00,
2013-09-19 07:17:00,69.3,68.7,28.61,WSW,248,0.0,0.0,98,0.00,CLR,,0.75,WeatherDisplay:10.37,2013-09-19 12:17:00,
2013-09-19 07:19:00,69.3,68.7,28.61,SE,135,3.5,3.5,98,0.00,CLR,,0.75,WeatherDisplay:10.37,2013-09-19 12:19:00,
2013-09-19 07:20:00,69.3,68.7,28.61,SE,135,3.5,3.5,98,0.00,CLR,,0.75,WeatherDisplay:10.37,2013-09-19 12:20:00,
2013-09-19 07:21:00,69.3,68.7,28.61,SE,135,2.3,2.3,98,0.00,CLR,,0.75,WeatherDisplay:10.37,2013-09-19 12:21:00,
2013-09-19 07:22:00,69.3,68.7,28.61,NW,315,2.3,2.3,98,0.00,CLR,,0.75,WeatherDisplay:10.37,2013-09-19 12:22:00,
2013-09-19 07:24:00,69.3,68.7,28.61,NW,315,1.2,1.2,98,0.00,CLR,,0.75,WeatherDisplay:10.37,2013-09-19 12:24:00,
2013-09-19 07:25:00,69.3,68.7,28.61,NW,315,0.0,0.0,98,0.00,CLR,,0.75,WeatherDisplay:10.37,2013-09-19 12:25:00,
2013-09-19 07:26:00,69.3,68.7,28.61,East,90,0.0,0.0,98,0.00,CLR,,0.75,WeatherDisplay:10.37,2013-09-19 12:26:00,
2013-09-19 07:27:00,69.3,68.7,28.61,SE,135,2.0,0.0,98,0.00,CLR,,0.75,WeatherDisplay:10.37,2013-09-19 12:27:00,
2013-09-19 07:29:00,69.3,68.7,28.61,ESE,112,2.3,2.3,98,0.00,CLR,,0.75,WeatherDisplay:10.37,2013-09-19 12:29:00,
2013-09-19 07:30:00,69.3,68.7,28.61,SSE,158,4.6,4.6,98,0.00,CLR,,0.75,WeatherDisplay:10.37,2013-09-19 12:30:00,
2013-09-19 07:31:00,69.3,68.7,28.61,SSE,158,5.8,5.8,98,0.00,CLR,,0.75,WeatherDisplay:10.37,2013-09-19 12:31:00,
2013-09-19 07:32:00,69.3,68.7,28.61,South,180,5.8,5.8,98,0.00,CLR,,0.75,WeatherDisplay:10.37,2013-09-19 12:32:00,
2013-09-19 07:34:00,69.4,68.9,28.61,SSE,158,3.8,3.8,98,0.00,CLR,,0.75,WeatherDisplay:10.37,2013-09-19 12:34:00,
2013-09-19 07:35:00,69.6,69.0,28.61,SSW,202,4.9,4.9,98,0.00,CLR,,0.75,WeatherDisplay:10.37,2013-09-19 12:35:00,
2013-09-19 07:37:00,69.6,69.0,28.61,South,180,5.8,5.8,98,0.00,CLR,,0.75,WeatherDisplay:10.37,2013-09-19 12:37:00,
2013-09-19 07:39:00,69.6,69.0,28.61,SE,135,4.6,4.6,98,0.00,CLR,,0.75,WeatherDisplay:10.37,2013-09-19 12:39:00,
2013-09-19 07:41:00,69.6,69.0,28.61,SSE,158,4.6,4.6,98,0.00,CLR,,0.75,WeatherDisplay:10.37,2013-09-19 12:41:00,
2013-09-19 07:42:00,69.6,69.0,28.61,SSE,158,5.8,5.8,98,0.00,CLR,,0.75,WeatherDisplay:10.37,2013-09-19 12:42:00,
2013-09-19 07:44:00,69.8,69.2,28.61,SSE,158,5.9,5.9,98,0.00,CLR,,0.75,WeatherDisplay:10.37,2013-09-19 12:44:00,
2013-09-19 07:46:00,69.8,69.2,28.61,SSE,158,4.6,4.6,98,0.00,CLR,,0.75,WeatherDisplay:10.37,2013-09-19 12:46:00,
2013-09-19 07:47:00,69.8,69.2,28.61,South,180,4.6,4.6,98,0.00,CLR,,0.75,WeatherDisplay:10.37,2013-09-19 12:47:00,
2013-09-19 07:49:00,70.0,69.4,28.61,SSE,158,0.0,0.0,98,0.00,CLR,,0.75,WeatherDisplay:10.37,2013-09-19 12:49:00,
2013-09-19 07:52:00,70.0,69.4,28.61,South,180,3.5,3.5,98,0.00,CLR,,0.75,WeatherDisplay:10.37,2013-09-19 12:52:00,
2013-09-19 07:54:00,70.0,69.4,28.61,SSE,158,3.5,3.5,98,0.00,CLR,,0.75,WeatherDisplay:10.37,2013-09-19 12:54:00,
2013-09-19 07:55:00,70.0,69.4,28.61,SE,135,3.6,3.6,98,0.00,CLR,,0.75,WeatherDisplay:10.37,2013-09-19 12:55:00,
2013-09-19 07:57:00,70.0,69.4,28.61,South,180,2.3,2.3,98,0.00,CLR,,0.75,WeatherDisplay:10.37,2013-09-19 12:57:00,
2013-09-19 07:58:00,70.0,69.4,28.61,SSE,158,2.3,2.3,98,0.00,CLR,,0.75,WeatherDisplay:10.37,2013-09-19 12:58:00,
2013-09-19 07:59:00,70.2,69.6,28.61,ESE,112,2.3,2.3,98,0.00,CLR,,0.75,WeatherDisplay:10.37,2013-09-19 12:59:00,
2013-09-19 08:00:00,70.2,69.6,28.61,ESE,112,2.3,2.3,98,0.00,CLR,,0.75,WeatherDisplay:10.37,2013-09-19 13:00:00,
2013-09-19 08:02:00,70.2,69.6,28.61,ESE,112,2.3,2.3,98,0.00,CLR,,0.75,WeatherDisplay:10.37,2013-09-19 13:02:00,
2013-09-19 08:03:00,70.2,69.6,28.61,SE,135,2.4,2.4,98,0.00,CLR,,0.75,WeatherDisplay:10.37,2013-09-19 13:03:00,
2013-09-19 08:05:00,70.2,69.6,28.61,ESE,112,2.3,2.3,98,0.00,CLR,,0.75,WeatherDisplay:10.37,2013-09-19 13:05:00,
2013-09-19 08:07:00,70.3,69.7,28.61,ESE,112,2.3,2.3,98,0.00,CLR,,0.75,WeatherDisplay:10.37,2013-09-19 13:07:00,
2013-09-19 08:08:00,70.3,69.7,28.61,ESE,112,2.3,2.3,98,0.00,CLR,,0.75,WeatherDisplay:10.37,2013-09-19 13:08:00,
2013-09-19 08:10:00,70.3,69.7,28.61,SE,135,2.3,2.3,98,0.00,CLR,,0.75,WeatherDisplay:10.37,2013-09-19 13:10:00,
2013-09-19 08:11:00,70.3,69.7,28.61,SE,135,2.3,2.4,98,0.00,CLR,,0.75,WeatherDisplay:10.37,2013-09-19 13:11:00,
2013-09-19 08:12:00,70.3,69.7,28.61,SSE,158,2.3,2.3,98,0.00,CLR,,0.75,WeatherDisplay:10.37,2013-09-19 13:12:00,
2013-09-19 08:13:00,70.3,69.7,28.61,South,180,3.6,3.6,98,0.00,CLR,,0.75,WeatherDisplay:10.37,2013-09-19 13:13:00,
2013-09-19 08:15:00,70.3,69.7,28.61,SE,135,3.5,3.5,98,0.00,CLR,,0.75,WeatherDisplay:10.37,2013-09-19 13:15:00,
2013-09-19 08:16:00,70.3,69.7,28.61,SSE,158,3.6,3.6,98,0.00,CLR,,0.75,WeatherDisplay:10.37,2013-09-19 13:16:00,
2013-09-19 08:18:00,70.3,69.7,28.61,SSE,158,4.6,4.6,98,0.00,CLR,,0.75,WeatherDisplay:10.37,2013-09-19 13:18:00,
2013-09-19 08:20:00,70.5,69.6,28.61,South,180,5.8,5.8,97,0.00,CLR,,0.75,WeatherDisplay:10.37,2013-09-19 13:20:00,
2013-09-19 08:21:00,70.5,69.3,28.61,South,180,5.8,5.8,96,0.00,CLR,,0.75,WeatherDisplay:10.37,2013-09-19 13:21:00,
2013-09-19 08:23:00,70.5,69.3,28.61,SSE,158,3.5,3.5,96,0.00,CLR,,0.75,WeatherDisplay:10.37,2013-09-19 13:23:00,
2013-09-19 08:24:00,70.5,69.3,28.61,South,180,6.2,6.2,96,0.00,CLR,,0.75,WeatherDisplay:10.37,2013-09-19 13:24:00,
2013-09-19 08:26:00,70.5,69.0,28.61,SSE,158,8.7,8.7,95,0.00,CLR,,0.75,WeatherDisplay:10.37,2013-09-19 13:26:00,
2013-09-19 08:28:00,70.7,68.9,28.61,South,180,9.2,9.2,94,0.00,CLR,,0.75,WeatherDisplay:10.37,2013-09-19 13:28:00,
2013-09-19 08:29:00,70.7,68.9,28.61,SSE,158,4.6,4.6,94,0.00,CLR,,0.75,WeatherDisplay:10.37,2013-09-19 13:29:00,
2013-09-19 08:31:00,70.7,68.9,28.61,SSE,158,5.6,5.6,94,0.00,CLR,,0.75,WeatherDisplay:10.37,2013-09-19 13:31:00,
2013-09-19 08:32:00,70.7,68.9,28.61,SSE,158,5.6,5.6,94,0.00,CLR,,0.75,WeatherDisplay:10.37,2013-09-19 13:32:00,
2013-09-19 08:33:00,70.7,68.9,28.61,SSE,158,4.6,4.6,94,0.00,CLR,,0.75,WeatherDisplay:10.37,2013-09-19 13:33:00,
2013-09-19 08:34:00,70.7,68.9,28.61,South,180,4.6,4.6,94,0.00,CLR,,0.75,WeatherDisplay:10.37,2013-09-19 13:34:00,
2013-09-19 08:37:00,71.1,69.2,28.61,South,180,4.6,4.6,94,0.00,CLR,,0.75,WeatherDisplay:10.37,2013-09-19 13:37:00,
2013-09-19 08:38:00,71.2,69.4,28.61,South,180,2.3,2.3,94,0.00,CLR,,0.75,WeatherDisplay:10.37,2013-09-19 13:38:00,
2013-09-19 08:39:00,71.4,69.9,28.61,South,180,2.3,2.3,95,0.00,CLR,,0.75,WeatherDisplay:10.37,2013-09-19 13:39:00,
2013-09-19 08:42:00,71.8,70.0,28.61,SSE,158,3.5,3.5,94,0.00,CLR,,0.75,WeatherDisplay:10.37,2013-09-19 13:42:00,
2013-09-19 08:43:00,71.8,69.6,28.61,SSE,158,6.9,6.9,93,0.00,CLR,,0.75,WeatherDisplay:10.37,2013-09-19 13:43:00,
2013-09-19 08:45:00,71.8,69.6,28.61,SW,225,4.7,4.7,93,0.00,CLR,,0.75,WeatherDisplay:10.37,2013-09-19 13:45:00,
2013-09-19 08:47:00,72.0,69.5,28.61,SSE,158,4.6,4.6,92,0.00,CLR,,0.75,WeatherDisplay:10.37,2013-09-19 13:47:00,
2013-09-19 08:48:00,72.0,69.5,28.61,SSE,158,3.5,3.5,92,0.00,CLR,,0.75,WeatherDisplay:10.37,2013-09-19 13:48:00,
2013-09-19 08:50:00,72.0,69.2,28.61,SSE,165,5.0,9.0,91,0.00,CLR,,0.75,WeatherDisplay:10.37,2013-09-19 13:50:00,
2013-09-19 08:52:00,72.0,68.5,28.61,SSE,158,6.9,6.9,89,0.00,CLR,,0.75,WeatherDisplay:10.37,2013-09-19 13:52:00,
2013-09-19 08:53:00,72.0,68.2,28.61,South,180,6.9,6.9,88,0.00,CLR,,0.75,WeatherDisplay:10.37,2013-09-19 13:53:00,
2013-09-19 08:55:00,72.0,68.5,28.61,South,180,4.7,4.7,89,0.00,CLR,,0.75,WeatherDisplay:10.37,2013-09-19 13:55:00,
2013-09-19 08:57:00,72.1,69.0,28.61,SE,135,3.6,3.6,90,0.00,CLR,,0.75,WeatherDisplay:10.37,2013-09-19 13:57:00,
2013-09-19 08:58:00,72.1,69.0,28.61,SSE,158,3.5,3.5,90,0.00,CLR,,0.75,WeatherDisplay:10.37,2013-09-19 13:58:00,
2013-09-19 08:59:00,72.1,69.0,28.61,SSE,158,3.5,3.5,90,0.00,CLR,,0.75,WeatherDisplay:10.37,2013-09-19 13:59:00,
2013-09-19 09:00:00,72.1,69.0,28.61,SSW,202,4.6,4.6,90,0.00,CLR,,0.75,WeatherDisplay:10.37,2013-09-19 14:00:00,
2013-09-19 09:02:00,72.3,69.2,28.61,WNW,292,5.8,5.8,90,0.00,CLR,,0.75,WeatherDisplay:10.37,2013-09-19 14:02:00,
2013-09-19 09:03:00,72.5,69.4,28.61,ESE,112,5.9,5.9,90,0.00,CLR,,0.75,WeatherDisplay:10.37,2013-09-19 14:03:00,
2013-09-19 09:04:00,72.5,69.4,28.61,ESE,112,5.9,5.9,90,0.00,CLR,,0.75,WeatherDisplay:10.37,2013-09-19 14:04:00,
2013-09-19 09:05:00,72.5,68.7,28.61,SE,135,5.8,5.8,88,0.00,CLR,,0.75,WeatherDisplay:10.37,2013-09-19 14:05:00,
2013-09-19 09:07:00,72.7,68.9,28.61,South,180,4.6,4.6,88,0.00,CLR,,0.75,WeatherDisplay:10.37,2013-09-19 14:07:00,
2013-09-19 09:08:00,72.9,68.8,28.61,South,180,6.4,6.4,87,0.00,CLR,,0.75,WeatherDisplay:10.37,2013-09-19 14:08:00,
2013-09-19 09:09:00,73.2,69.1,28.61,SSE,158,8.1,8.1,87,0.00,CLR,,0.75,WeatherDisplay:10.37,2013-09-19 14:09:00,
2013-09-19 09:10:00,73.4,69.3,28.61,South,180,12.5,12.5,87,0.00,CLR,,0.75,WeatherDisplay:10.37,2013-09-19 14:10:00,
2013-09-19 09:12:00,74.1,69.7,28.61,SSW,202,5.8,5.8,86,0.00,CLR,,0.75,WeatherDisplay:10.37,2013-09-19 14:12:00,
2013-09-19 09:13:00,74.1,69.7,28.61,SE,135,4.6,4.6,86,0.00,CLR,,0.75,WeatherDisplay:10.37,2013-09-19 14:13:00,
2013-09-19 09:14:00,74.8,70.4,28.61,SSE,158,4.6,4.6,86,0.00,CLR,,0.75,WeatherDisplay:10.37,2013-09-19 14:14:00,
2013-09-19 09:16:00,75.0,69.9,28.61,SSE,158,7.4,7.4,84,0.00,CLR,,0.75,WeatherDisplay:10.37,2013-09-19 14:16:00,
2013-09-19 09:17:00,75.0,68.8,28.61,SSE,158,10.4,10.4,81,0.00,CLR,,0.75,WeatherDisplay:10.37,2013-09-19 14:17:00,
2013-09-19 09:18:00,75.0,68.8,28.61,SSE,158,10.4,10.4,81,0.00,CLR,,0.75,WeatherDisplay:10.37,2013-09-19 14:18:00,
2013-09-19 09:19:00,75.0,69.1,28.61,SSE,158,6.9,6.9,82,0.00,CLR,,0.75,WeatherDisplay:10.37,2013-09-19 14:19:00,
2013-09-19 09:20:00,75.2,69.7,28.61,NE,45,4.6,4.6,83,0.00,CLR,,0.75,WeatherDisplay:10.37,2013-09-19 14:20:00,
2013-09-19 09:21:00,75.4,69.9,28.61,South,180,3.5,3.5,83,0.00,CLR,,0.75,WeatherDisplay:10.37,2013-09-19 14:21:00,
2013-09-19 09:23:00,75.7,69.1,28.61,South,180,11.5,11.5,80,0.00,CLR,,0.75,WeatherDisplay:10.37,2013-09-19 14:23:00,
2013-09-19 09:24:00,75.6,69.0,28.61,East,90,10.4,10.4,80,0.00,CLR,,0.75,WeatherDisplay:10.37,2013-09-19 14:24:00,
2013-09-19 09:25:00,76.6,69.6,28.61,SE,135,8.1,8.1,79,0.00,CLR,,0.75,WeatherDisplay:10.37,2013-09-19 14:25:00,
2013-09-19 09:26:00,76.6,69.6,28.61,SSE,158,8.1,8.1,79,0.00,CLR,,0.75,WeatherDisplay:10.37,2013-09-19 14:26:00,
2013-09-19 09:28:00,76.8,69.4,28.61,SSW,202,12.7,12.7,78,0.00,CLR,,0.75,WeatherDisplay:10.37,2013-09-19 14:28:00,
2013-09-19 09:29:00,77.0,69.2,28.61,SSE,158,8.1,8.1,77,0.00,CLR,,0.75,WeatherDisplay:10.37,2013-09-19 14:29:00,
2013-09-19 09:31:00,76.8,69.1,28.61,ESE,112,6.9,6.9,77,0.00,CLR,,0.75,WeatherDisplay:10.37,2013-09-19 14:31:00,
2013-09-19 09:33:00,76.8,69.1,28.61,SSW,202,7.8,7.8,77,0.00,CLR,,0.75,WeatherDisplay:10.37,2013-09-19 14:33:00,
2013-09-19 09:34:00,76.8,68.7,28.61,SSE,158,8.1,8.1,76,0.00,CLR,,0.75,WeatherDisplay:10.37,2013-09-19 14:34:00,
2013-09-19 09:36:00,77.0,68.5,28.61,South,180,5.8,5.8,75,0.00,CLR,,0.75,WeatherDisplay:10.37,2013-09-19 14:36:00,
2013-09-19 09:38:00,76.3,67.4,28.61,SW,225,9.4,9.4,74,0.00,CLR,,0.75,WeatherDisplay:10.37,2013-09-19 14:38:00,
2013-09-19 09:40:00,76.1,67.6,28.61,SSE,158,9.2,9.2,75,0.00,CLR,,0.75,WeatherDisplay:10.37,2013-09-19 14:40:00,
2013-09-19 09:41:00,75.4,66.9,28.61,SW,225,12.7,12.7,75,0.00,CLR,,0.75,WeatherDisplay:10.37,2013-09-19 14:41:00,
2013-09-19 09:42:00,75.2,67.1,28.61,NNW,338,6.9,6.9,76,0.00,CLR,,0.75,WeatherDisplay:10.37,2013-09-19 14:42:00,
2013-09-19 09:43:00,75.9,67.8,28.61,WSW,248,6.9,6.9,76,0.00,CLR,,0.75,WeatherDisplay:10.37,2013-09-19 14:43:00,
2013-09-19 09:45:00,76.0,67.9,28.61,SSW,202,3.0,13.0,76,0.00,CLR,,0.75,WeatherDisplay:10.37,2013-09-19 14:45:00,
2013-09-19 09:47:00,76.8,68.7,28.61,SSW,202,4.7,4.7,76,0.00,CLR,,0.75,WeatherDisplay:10.37,2013-09-19 14:47:00,
2013-09-19 09:48:00,77.0,68.1,28.61,SW,225,10.4,10.4,74,0.00,CLR,,0.75,WeatherDisplay:10.37,2013-09-19 14:48:00,
2013-09-19 09:50:00,76.6,68.1,28.61,SSW,204,5.0,10.0,75,0.00,CLR,,0.75,WeatherDisplay:10.37,2013-09-19 14:50:00,
2013-09-19 09:52:00,76.1,67.6,28.61,SSE,158,9.2,9.2,75,0.00,CLR,,0.75,WeatherDisplay:10.37,2013-09-19 14:52:00,
2013-09-19 09:53:00,76.3,67.8,28.61,SSW,202,13.8,13.8,75,0.00,CLR,,0.75,WeatherDisplay:10.37,2013-09-19 14:53:00,
2013-09-19 09:55:00,76.3,67.8,28.61,SSE,158,8.5,8.5,75,0.00,CLR,,0.75,WeatherDisplay:10.37,2013-09-19 14:55:00,
2013-09-19 09:58:00,77.7,68.4,28.61,SW,225,11.5,11.5,73,0.00,CLR,,0.75,WeatherDisplay:10.37,2013-09-19 14:58:00,
2013-09-19 10:00:00,77.9,68.1,28.61,SSE,158,15.0,15.0,72,0.00,CLR,,0.75,WeatherDisplay:10.37,2013-09-19 15:00:00,
2013-09-19 10:01:00,78.6,69.2,28.61,East,90,9.2,9.2,73,0.00,CLR,,0.75,WeatherDisplay:10.37,2013-09-19 15:01:00,
2013-09-19 10:03:00,79.2,69.8,28.61,South,180,13.8,13.8,73,0.00,CLR,,0.75,WeatherDisplay:10.37,2013-09-19 15:03:00,
2013-09-19 10:04:00,79.2,68.9,28.61,SSE,158,13.8,13.8,71,0.00,CLR,,0.75,WeatherDisplay:10.37,2013-09-19 15:04:00,
2013-09-19 10:05:00,79.0,67.9,28.61,WSW,248,14.3,14.3,69,0.00,CLR,,0.75,WeatherDisplay:10.37,2013-09-19 15:05:00,
2013-09-19 10:06:00,79.0,67.9,28.61,SE,135,13.8,13.8,69,0.00,CLR,,0.75,WeatherDisplay:10.37,2013-09-19 15:06:00,
2013-09-19 10:08:00,79.2,68.1,28.61,SSE,158,6.9,6.9,69,0.00,CLR,,0.75,WeatherDisplay:10.37,2013-09-19 15:08:00,
2013-09-19 10:09:00,79.2,68.1,28.61,SE,135,8.5,8.5,69,0.00,CLR,,0.75,WeatherDisplay:10.37,2013-09-19 15:09:00,
2013-09-19 10:10:00,79.0,67.9,28.61,SSW,202,8.1,8.1,69,0.00,CLR,,0.75,WeatherDisplay:10.37,2013-09-19 15:10:00,
2013-09-19 10:13:00,78.8,67.8,28.61,South,180,12.3,12.3,69,0.00,CLR,,0.75,WeatherDisplay:10.37,2013-09-19 15:13:00,
2013-09-19 10:14:00,78.8,67.8,28.61,South,180,12.7,12.7,69,0.00,CLR,,0.75,WeatherDisplay:10.37,2013-09-19 15:14:00,
2013-09-19 10:15:00,78.8,67.8,28.61,South,179,7.0,13.0,69,0.00,CLR,,0.75,WeatherDisplay:10.37,2013-09-19 15:15:00,
2013-09-19 10:18:00,78.4,67.4,28.61,South,180,12.7,12.7,69,0.00,CLR,,0.75,WeatherDisplay:10.37,2013-09-19 15:18:00,
2013-09-19 10:19:00,78.4,67.4,28.61,South,180,12.7,12.7,69,0.00,CLR,,0.75,WeatherDisplay:10.37,2013-09-19 15:19:00,
2013-09-19 10:20:00,78.1,66.7,28.61,South,180,14.7,14.7,68,0.00,CLR,,0.75,WeatherDisplay:10.37,2013-09-19 15:20:00,
2013-09-19 10:24:00,77.5,66.6,28.61,SSW,202,13.8,13.8,69,0.00,CLR,,0.75,WeatherDisplay:10.37,2013-09-19 15:24:00,
2013-09-19 10:25:00,77.5,67.0,28.61,South,188,6.0,18.0,70,0.00,CLR,,0.75,WeatherDisplay:10.37,2013-09-19 15:25:00,
2013-09-19 10:29:00,77.0,66.5,28.61,South,180,12.7,12.7,70,0.00,CLR,,0.75,WeatherDisplay:10.37,2013-09-19 15:29:00,
2013-09-19 10:30:00,77.0,66.9,28.61,South,186,9.0,22.0,71,0.00,CLR,,0.75,WeatherDisplay:10.37,2013-09-19 15:30:00,
2013-09-19 10:34:00,77.5,67.8,28.61,SSE,158,17.3,17.3,72,0.00,CLR,,0.75,WeatherDisplay:10.37,2013-09-19 15:34:00,
2013-09-19 10:35:00,77.5,67.8,28.61,South,180,10.4,10.4,72,0.00,CLR,,0.75,WeatherDisplay:10.37,2013-09-19 15:35:00,
2013-09-19 10:39:00,78.3,67.7,28.61,SSE,158,12.7,12.7,70,0.00,CLR,,0.75,WeatherDisplay:10.37,2013-09-19 15:39:00,
2013-09-19 10:40:00,78.6,68.0,28.61,SE,135,10.4,10.4,70,0.00,CLR,,0.75,WeatherDisplay:10.37,2013-09-19 15:40:00,
2013-09-19 10:41:00,79.0,67.9,28.61,SSE,158,10.4,10.4,69,0.00,CLR,,0.75,WeatherDisplay:10.37,2013-09-19 15:41:00,
2013-09-19 10:44:00,79.0,67.1,28.61,SSE,158,19.0,19.0,67,0.00,CLR,,0.75,WeatherDisplay:10.37,2013-09-19 15:44:00,
2013-09-19 10:45:00,79.0,67.1,28.61,SSW,202,18.4,18.4,67,0.00,CLR,,0.75,WeatherDisplay:10.37,2013-09-19 15:45:00,
2013-09-19 10:46:00,79.2,67.3,28.61,SSE,158,10.4,10.7,67,0.00,CLR,,0.75,WeatherDisplay:10.37,2013-09-19 15:46:00,
2013-09-19 10:49:00,79.7,66.9,28.61,South,180,17.3,17.3,65,0.00,CLR,,0.75,WeatherDisplay:10.37,2013-09-19 15:49:00,
2013-09-19 10:50:00,79.9,67.1,28.61,South,180,5.8,6.2,65,0.00,CLR,,0.75,WeatherDisplay:10.37,2013-09-19 15:50:00,
2013-09-19 10:51:00,80.1,67.2,28.61,South,180,6.4,6.4,65,0.00,CLR,,0.75,WeatherDisplay:10.37,2013-09-19 15:51:00,
2013-09-19 10:52:00,80.2,67.8,28.61,South,180,10.7,10.7,66,0.00,CLR,,0.75,WeatherDisplay:10.37,2013-09-19 15:52:00,
2013-09-19 10:54:00,80.6,67.3,28.61,South,180,13.0,13.0,64,0.00,CLR,,0.75,WeatherDisplay:10.37,2013-09-19 15:54:00,
2013-09-19 10:55:00,80.4,67.1,28.58,SSE,158,12.7,12.7,64,0.00,CLR,,0.75,WeatherDisplay:10.37,2013-09-19 15:55:00,
2013-09-19 10:56:00,80.4,67.1,28.58,SSW,202,8.1,8.1,64,0.00,CLR,,0.75,WeatherDisplay:10.37,2013-09-19 15:56:00,
2013-09-19 10:57:00,80.4,67.6,28.58,SSE,158,8.1,8.1,65,0.00,CLR,,0.75,WeatherDisplay:10.37,2013-09-19 15:57:00,
2013-09-19 10:59:00,80.1,67.2,28.58,SSE,158,12.7,12.7,65,0.00,CLR,,0.75,WeatherDisplay:10.37,2013-09-19 15:59:00,
2013-09-19 11:01:00,80.2,67.0,28.58,WSW,248,10.4,10.4,64,0.00,CLR,,0.75,WeatherDisplay:10.37,2013-09-19 16:01:00,
2013-09-19 11:02:00,80.6,67.3,28.58,SE,135,12.1,12.1,64,0.00,CLR,,0.75,WeatherDisplay:10.37,2013-09-19 16:02:00,
2013-09-19 11:04:00,80.1,67.2,28.58,WSW,248,15.0,15.0,65,0.00,CLR,,0.75,WeatherDisplay:10.37,2013-09-19 16:04:00,
2013-09-19 11:07:00,79.9,66.6,28.58,South,180,9.7,9.7,64,0.00,CLR,,0.75,WeatherDisplay:10.37,2013-09-19 16:07:00,
2013-09-19 11:10:00,79.7,66.4,28.61,SSE,158,19.4,19.4,64,0.00,CLR,,0.75,WeatherDisplay:10.37,2013-09-19 16:10:00,
2013-09-19 11:12:00,79.9,67.5,28.61,SSE,158,19.6,19.6,66,0.00,CLR,,0.75,WeatherDisplay:10.37,2013-09-19 16:12:00,
2013-09-19 11:16:00,80.6,67.3,28.61,SSE,158,6.2,6.2,64,0.00,CLR,,0.75,WeatherDisplay:10.37,2013-09-19 16:16:00,
2013-09-19 11:17:00,80.6,66.8,28.61,South,180,6.0,6.7,63,0.00,CLR,,0.75,WeatherDisplay:10.37,2013-09-19 16:17:00,
2013-09-19 11:18:00,80.6,66.8,28.61,WSW,248,5.8,6.7,63,0.00,CLR,,0.75,WeatherDisplay:10.37,2013-09-19 16:18:00,
2013-09-19 11:21:00,81.5,67.7,28.61,SW,225,6.9,6.9,63,0.00,CLR,,0.75,WeatherDisplay:10.37,2013-09-19 16:21:00,
2013-09-19 11:22:00,81.7,67.9,28.61,SSW,202,8.1,8.1,63,0.00,CLR,,0.75,WeatherDisplay:10.37,2013-09-19 16:22:00,
2013-09-19 11:23:00,81.9,67.6,28.61,SW,225,5.8,5.8,62,0.00,CLR,,0.75,WeatherDisplay:10.37,2013-09-19 16:23:00,
2013-09-19 11:26:00,80.8,66.1,28.56,South,180,8.1,8.1,61,0.00,CLR,,0.75,WeatherDisplay:10.37,2013-09-19 16:26:00,
2013-09-19 11:27:00,80.2,66.0,28.56,WSW,248,8.1,8.1,62,0.00,CLR,,0.75,WeatherDisplay:10.37,2013-09-19 16:27:00,
2013-09-19 11:28:00,79.5,65.8,28.56,WSW,248,6.9,6.9,63,0.00,CLR,,0.75,WeatherDisplay:10.37,2013-09-19 16:28:00,
2013-09-19 11:32:00,78.1,66.7,28.56,South,180,6.7,6.7,68,0.02,RA,,0.77,WeatherDisplay:10.37,2013-09-19 16:32:00,
2013-09-19 11:33:00,77.7,66.3,28.56,SSW,202,7.8,7.8,68,0.02,RA,,0.77,WeatherDisplay:10.37,2013-09-19 16:33:00,
2013-09-19 11:37:00,75.6,66.3,28.56,SSW,202,10.4,10.4,73,0.03,RA,,0.78,WeatherDisplay:10.37,2013-09-19 16:37:00,
2013-09-19 11:38:00,75.2,65.9,28.56,SW,225,10.4,10.4,73,0.03,RA,,0.78,WeatherDisplay:10.37,2013-09-19 16:38:00,
2013-09-19 11:39:00,75.0,66.6,28.56,SSE,158,10.4,10.4,75,0.03,RA,,0.78,WeatherDisplay:10.37,2013-09-19 16:39:00,
2013-09-19 11:42:00,74.5,66.8,28.58,South,180,4.6,4.6,77,0.03,RA,,0.78,WeatherDisplay:10.37,2013-09-19 16:42:00,
2013-09-19 11:43:00,74.5,66.8,28.58,WSW,248,5.8,5.8,77,0.03,RA,,0.78,WeatherDisplay:10.37,2013-09-19 16:43:00,
2013-09-19 11:44:00,74.3,67.0,28.58,SE,135,5.8,5.8,78,0.03,RA,,0.78,WeatherDisplay:10.37,2013-09-19 16:44:00,
2013-09-19 11:47:00,74.1,67.2,28.58,SSW,202,6.9,6.9,79,0.03,CLR,,0.78,WeatherDisplay:10.37,2013-09-19 16:47:00,
2013-09-19 11:48:00,74.1,67.2,28.58,SSW,202,5.8,5.8,79,0.03,CLR,,0.78,WeatherDisplay:10.37,2013-09-19 16:48:00,
2013-09-19 11:49:00,74.1,67.2,28.58,North,0,5.8,5.8,79,0.03,CLR,,0.78,WeatherDisplay:10.37,2013-09-19 16:49:00,
2013-09-19 11:52:00,73.8,67.2,28.58,SSW,202,11.5,11.5,80,0.03,CLR,,0.78,WeatherDisplay:10.37,2013-09-19 16:52:00,
2013-09-19 11:53:00,73.8,67.6,28.58,SSE,158,11.5,11.5,81,0.03,CLR,,0.78,WeatherDisplay:10.37,2013-09-19 16:53:00,
2013-09-19 11:54:00,73.8,67.6,28.61,NE,45,8.1,8.1,81,0.03,CLR,,0.78,WeatherDisplay:10.37,2013-09-19 16:54:00,
2013-09-19 11:58:00,73.9,67.7,28.61,SW,225,13.8,13.8,81,0.03,CLR,,0.78,WeatherDisplay:10.37,2013-09-19 16:58:00,
2013-09-19 11:59:00,73.8,67.9,28.61,SSW,202,13.8,13.8,82,0.03,CLR,,0.78,WeatherDisplay:10.37,2013-09-19 16:59:00,
2013-09-19 12:00:00,73.8,67.9,28.61,SE,135,7.6,7.6,82,0.03,CLR,,0.78,WeatherDisplay:10.37,2013-09-19 17:00:00,
2013-09-19 12:03:00,73.9,67.7,28.61,SSW,202,11.5,11.5,81,0.03,CLR,,0.78,WeatherDisplay:10.37,2013-09-19 17:03:00,
2013-09-19 12:04:00,73.9,67.7,28.61,SW,225,11.5,11.5,81,0.03,CLR,,0.78,WeatherDisplay:10.37,2013-09-19 17:04:00,
2013-09-19 12:05:00,74.1,68.3,28.61,SSE,158,4.6,4.6,82,0.03,CLR,,0.78,WeatherDisplay:10.37,2013-09-19 17:05:00,
2013-09-19 12:08:00,74.5,68.3,28.61,SSW,202,4.6,4.6,81,0.03,CLR,,0.78,WeatherDisplay:10.37,2013-09-19 17:08:00,
2013-09-19 12:09:00,74.5,68.3,28.61,SE,135,4.6,4.6,81,0.03,CLR,,0.78,WeatherDisplay:10.37,2013-09-19 17:09:00,
2013-09-19 12:10:00,74.7,68.8,28.58,South,180,12.3,12.3,82,0.03,CLR,,0.78,WeatherDisplay:10.37,2013-09-19 17:10:00,
2013-09-19 12:13:00,75.0,69.1,28.58,SSW,202,2.6,3.8,82,0.03,CLR,,0.78,WeatherDisplay:10.37,2013-09-19 17:13:00,
2013-09-19 12:14:00,75.2,69.0,28.58,SSE,158,2.9,3.8,81,0.03,CLR,,0.78,WeatherDisplay:10.37,2013-09-19 17:14:00,
2013-09-19 12:15:00,75.2,68.6,28.58,SSW,202,8.5,8.5,80,0.03,CLR,,0.78,WeatherDisplay:10.37,2013-09-19 17:15:00,
2013-09-19 12:18:00,75.9,69.3,28.58,North,0,2.6,4.5,80,0.03,CLR,,0.78,WeatherDisplay:10.37,2013-09-19 17:18:00,
2013-09-19 12:19:00,75.9,69.3,28.58,North,0,2.6,4.5,80,0.03,CLR,,0.78,WeatherDisplay:10.37,2013-09-19 17:19:00,
2013-09-19 12:20:00,76.1,69.1,28.58,North,0,2.6,4.5,79,0.03,CLR,,0.78,WeatherDisplay:10.37,2013-09-19 17:20:00,
2013-09-19 12:21:00,76.3,68.9,28.58,SW,225,2.6,5.9,78,0.03,CLR,,0.78,WeatherDisplay:10.37,2013-09-19 17:21:00,
2013-09-19 12:24:00,77.2,69.8,28.58,South,180,7.1,7.1,78,0.03,CLR,,0.78,WeatherDisplay:10.37,2013-09-19 17:24:00,
2013-09-19 12:25:00,77.0,69.2,28.58,South,180,10.0,10.0,77,0.03,CLR,,0.78,WeatherDisplay:10.37,2013-09-19 17:25:00,
2013-09-19 12:26:00,76.6,68.9,28.58,SSE,158,10.4,10.4,77,0.03,CLR,,0.78,WeatherDisplay:10.37,2013-09-19 17:26:00,
2013-09-19 12:29:00,76.5,68.7,28.58,SSW,202,8.1,8.1,77,0.03,CLR,,0.78,WeatherDisplay:10.37,2013-09-19 17:29:00,
2013-09-19 12:30:00,76.5,69.1,28.58,SSE,158,17.5,17.5,78,0.02,CLR,,0.78,WeatherDisplay:10.37,2013-09-19 17:30:00,
2013-09-19 12:31:00,76.5,68.7,28.58,SW,225,17.3,17.3,77,0.02,CLR,,0.78,WeatherDisplay:10.37,2013-09-19 17:31:00,
2013-09-19 12:34:00,76.5,68.3,28.58,South,180,9.2,9.2,76,0.00,CLR,,0.78,WeatherDisplay:10.37,2013-09-19 17:34:00,
2013-09-19 12:35:00,76.5,68.3,28.58,SSE,158,5.8,5.9,76,0.00,CLR,,0.78,WeatherDisplay:10.37,2013-09-19 17:35:00,
2013-09-19 12:38:00,77.4,68.8,28.58,SSW,202,6.9,6.9,75,0.00,CLR,,0.78,WeatherDisplay:10.37,2013-09-19 17:38:00,
2013-09-19 12:39:00,77.9,69.3,28.58,SSE,158,5.8,5.8,75,0.00,CLR,,0.78,WeatherDisplay:10.37,2013-09-19 17:39:00,
2013-09-19 12:40:00,77.9,69.3,28.58,SW,225,6.4,6.4,75,0.00,CLR,,0.78,WeatherDisplay:10.37,2013-09-19 17:40:00,
2013-09-19 12:43:00,77.9,68.5,28.58,ESE,112,13.8,13.8,73,0.00,CLR,,0.78,WeatherDisplay:10.37,2013-09-19 17:43:00,
2013-09-19 12:44:00,78.4,69.1,28.58,South,180,13.8,13.8,73,0.00,CLR,,0.78,WeatherDisplay:10.37,2013-09-19 17:44:00,
2013-09-19 12:45:00,78.4,69.1,28.58,SSE,158,13.8,13.8,73,0.00,CLR,,0.78,WeatherDisplay:10.37,2013-09-19 17:45:00,
2013-09-19 12:46:00,78.4,68.7,28.58,SSE,158,12.7,12.7,72,0.00,CLR,,0.78,WeatherDisplay:10.37,2013-09-19 17:46:00,
2013-09-19 12:49:00,78.8,68.6,28.58,WSW,248,8.1,8.1,71,0.00,CLR,,0.78,WeatherDisplay:10.37,2013-09-19 17:49:00,
2013-09-19 12:50:00,79.0,68.4,28.58,South,185,6.0,13.0,70,0.00,CLR,,0.78,WeatherDisplay:10.37,2013-09-19 17:50:00,
2013-09-19 12:53:00,79.7,67.3,28.58,SW,225,10.5,10.5,66,0.00,CLR,,0.78,WeatherDisplay:10.37,2013-09-19 17:53:00,
2013-09-19 12:54:00,79.7,67.3,28.58,SSW,202,12.7,12.7,66,0.00,CLR,,0.78,WeatherDisplay:10.37,2013-09-19 17:54:00,
2013-09-19 12:55:00,80.1,68.5,28.56,South,180,3.8,3.8,68,0.00,CLR,,0.78,WeatherDisplay:10.37,2013-09-19 17:55:00,
2013-09-19 12:58:00,81.0,68.5,28.56,WSW,248,7.6,7.6,66,0.00,CLR,,0.78,WeatherDisplay:10.37,2013-09-19 17:58:00,
2013-09-19 12:59:00,81.3,68.4,28.56,South,180,8.1,8.1,65,0.00,CLR,,0.78,WeatherDisplay:10.37,2013-09-19 17:59:00,
2013-09-19 13:00:00,81.1,67.8,28.56,ESE,112,6.9,6.9,64,0.00,CLR,,0.78,WeatherDisplay:10.37,2013-09-19 18:00:00,
2013-09-19 13:04:00,80.4,67.6,28.56,South,180,6.9,6.9,65,0.00,CLR,,0.78,WeatherDisplay:10.37,2013-09-19 18:04:00,
2013-09-19 13:05:00,79.5,66.7,28.56,SSE,158,6.9,6.9,65,0.00,CLR,,0.78,WeatherDisplay:10.37,2013-09-19 18:05:00,
2013-09-19 13:09:00,78.8,66.5,28.56,South,180,12.7,12.7,66,0.00,CLR,,0.78,WeatherDisplay:10.37,2013-09-19 18:09:00,
2013-09-19 13:10:00,78.6,66.3,28.58,SSE,158,8.1,8.1,66,0.00,CLR,,0.78,WeatherDisplay:10.37,2013-09-19 18:10:00,
2013-09-19 13:14:00,78.8,66.9,28.58,North,0,8.1,8.1,67,0.00,CLR,,0.78,WeatherDisplay:10.37,2013-09-19 18:14:00,
2013-09-19 13:15:00,78.6,66.7,28.58,North,0,8.1,8.1,67,0.00,CLR,,0.78,WeatherDisplay:10.37,2013-09-19 18:15:00,
2013-09-19 13:16:00,79.2,67.3,28.58,North,0,8.1,8.1,67,0.00,CLR,,0.78,WeatherDisplay:10.37,2013-09-19 18:16:00,
2013-09-19 13:19:00,81.0,69.0,28.58,WSW,248,5.8,5.8,67,0.00,CLR,,0.78,WeatherDisplay:10.37,2013-09-19 18:19:00,
2013-09-19 13:20:00,81.1,68.7,28.58,South,180,5.9,6.9,66,0.00,CLR,,0.78,WeatherDisplay:10.37,2013-09-19 18:20:00,
2013-09-19 13:21:00,81.1,68.3,28.58,SW,225,7.6,7.6,65,0.00,CLR,,0.78,WeatherDisplay:10.37,2013-09-19 18:21:00,
2013-09-19 13:24:00,81.0,67.6,28.58,SSW,202,8.1,8.1,64,0.00,CLR,,0.78,WeatherDisplay:10.37,2013-09-19 18:24:00,
2013-09-19 13:25:00,81.1,67.8,28.56,WSW,248,5.8,5.8,64,0.00,CLR,,0.78,WeatherDisplay:10.37,2013-09-19 18:25:00,
2013-09-19 13:26:00,81.0,67.6,28.56,South,180,3.8,5.4,64,0.00,CLR,,0.78,WeatherDisplay:10.37,2013-09-19 18:26:00,
2013-09-19 13:27:00,81.1,67.8,28.56,SSW,202,3.5,5.4,64,0.00,CLR,,0.78,WeatherDisplay:10.37,2013-09-19 18:27:00,
2013-09-19 13:29:00,81.3,68.0,28.56,ESE,112,10.7,10.7,64,0.00,CLR,,0.78,WeatherDisplay:10.37,2013-09-19 18:29:00,
2013-09-19 13:30:00,81.3,68.0,28.56,West,270,10.4,10.4,64,0.00,CLR,,0.78,WeatherDisplay:10.37,2013-09-19 18:30:00,
2013-09-19 13:31:00,81.1,67.8,28.56,WSW,248,10.4,10.4,64,0.00,CLR,,0.78,WeatherDisplay:10.37,2013-09-19 18:31:00,
2013-09-19 13:32:00,81.1,67.3,28.56,South,180,9.2,9.2,63,0.00,CLR,,0.78,WeatherDisplay:10.37,2013-09-19 18:32:00,
2013-09-19 13:35:00,80.8,67.5,28.56,SSW,202,4.6,4.6,64,0.00,CLR,,0.78,WeatherDisplay:10.37,2013-09-19 18:35:00,
2013-09-19 13:36:00,81.0,68.1,28.56,NNW,338,4.6,4.6,65,0.00,CLR,,0.78,WeatherDisplay:10.37,2013-09-19 18:36:00,
2013-09-19 13:37:00,81.0,68.1,28.56,SW,225,2.9,3.1,65,0.00,CLR,,0.78,WeatherDisplay:10.37,2013-09-19 18:37:00,
2013-09-19 13:40:00,81.1,68.3,28.53,SSW,202,3.8,3.8,65,0.00,CLR,,0.78,WeatherDisplay:10.37,2013-09-19 18:40:00,
2013-09-19 13:41:00,81.1,68.3,28.53,SSW,202,5.8,5.8,65,0.00,CLR,,0.78,WeatherDisplay:10.37,2013-09-19 18:41:00,
2013-09-19 13:42:00,81.3,68.4,28.53,WSW,248,3.5,4.3,65,0.00,CLR,,0.78,WeatherDisplay:10.37,2013-09-19 18:42:00,
2013-09-19 13:45:00,81.9,68.5,28.53,WSW,248,5.4,5.4,64,0.00,CLR,,0.78,WeatherDisplay:10.37,2013-09-19 18:45:00,
2013-09-19 13:47:00,82.0,68.7,28.53,SW,225,2.3,2.3,64,0.00,CLR,,0.78,WeatherDisplay:10.37,2013-09-19 18:47:00,
2013-09-19 13:50:00,82.6,68.7,28.53,West,270,6.9,6.9,63,0.00,CLR,,0.78,WeatherDisplay:10.37,2013-09-19 18:50:00,
2013-09-19 13:51:00,82.6,68.7,28.53,West,270,6.9,6.9,63,0.00,CLR,,0.78,WeatherDisplay:10.37,2013-09-19 18:51:00,
2013-09-19 13:52:00,82.8,68.9,28.53,South,180,5.8,5.8,63,0.00,CLR,,0.78,WeatherDisplay:10.37,2013-09-19 18:52:00,
2013-09-19 13:53:00,82.8,68.9,28.53,South,180,5.8,5.8,63,0.00,CLR,,0.78,WeatherDisplay:10.37,2013-09-19 18:53:00,
2013-09-19 13:55:00,82.0,68.2,28.53,SSW,202,6.9,6.9,63,0.00,CLR,,0.78,WeatherDisplay:10.37,2013-09-19 18:55:00,
2013-09-19 13:56:00,82.0,68.2,28.53,SSE,158,6.9,6.9,63,0.00,CLR,,0.78,WeatherDisplay:10.37,2013-09-19 18:56:00,
2013-09-19 13:57:00,81.9,68.0,28.53,SE,135,4.9,4.9,63,0.00,CLR,,0.78,WeatherDisplay:10.37,2013-09-19 18:57:00,
2013-09-19 13:58:00,81.9,68.0,28.53,SSE,158,4.6,4.6,63,0.00,CLR,,0.78,WeatherDisplay:10.37,2013-09-19 18:58:00,
2013-09-19 14:00:00,81.9,68.0,28.53,South,180,8.1,8.1,63,0.00,CLR,,0.78,WeatherDisplay:10.37,2013-09-19 19:00:00,
2013-09-19 14:01:00,81.9,68.0,28.53,SSW,202,8.1,8.1,63,0.00,CLR,,0.78,WeatherDisplay:10.37,2013-09-19 19:01:00,
2013-09-19 14:02:00,81.9,68.0,28.53,WSW,248,9.2,9.2,63,0.00,CLR,,0.78,WeatherDisplay:10.37,2013-09-19 19:02:00,
2013-09-19 14:03:00,81.9,68.0,28.53,SW,225,4.7,4.7,63,0.00,CLR,,0.78,WeatherDisplay:10.37,2013-09-19 19:03:00,
2013-09-19 14:04:00,81.9,68.0,28.53,South,180,4.6,4.6,63,0.00,CLR,,0.78,WeatherDisplay:10.37,2013-09-19 19:04:00,
2013-09-19 14:06:00,82.2,68.8,28.53,South,180,3.5,3.5,64,0.00,CLR,,0.78,WeatherDisplay:10.37,2013-09-19 19:06:00,
2013-09-19 14:08:00,82.0,68.7,28.53,SSW,202,4.0,4.0,64,0.00,CLR,,0.78,WeatherDisplay:10.37,2013-09-19 19:08:00,
2013-09-19 14:09:00,81.9,68.5,28.53,SSE,158,5.8,5.8,64,0.00,CLR,,0.78,WeatherDisplay:10.37,2013-09-19 19:09:00,
2013-09-19 14:11:00,81.9,68.5,28.56,South,180,6.9,6.9,64,0.00,CLR,,0.78,WeatherDisplay:10.37,2013-09-19 19:11:00,
2013-09-19 14:12:00,82.0,68.7,28.56,SW,225,3.8,3.8,64,0.00,CLR,,0.78,WeatherDisplay:10.37,2013-09-19 19:12:00,
2013-09-19 14:13:00,82.0,68.7,28.56,NW,315,2.4,2.6,64,0.00,CLR,,0.78,WeatherDisplay:10.37,2013-09-19 19:13:00,
2013-09-19 14:14:00,82.0,68.7,28.56,SSE,158,3.5,3.5,64,0.00,CLR,,0.78,WeatherDisplay:10.37,2013-09-19 19:14:00,
2013-09-19 14:16:00,82.0,68.7,28.56,SSW,202,3.8,3.8,64,0.00,CLR,,0.78,WeatherDisplay:10.37,2013-09-19 19:16:00,
2013-09-19 14:17:00,82.0,68.7,28.56,South,180,3.6,3.6,64,0.00,CLR,,0.78,WeatherDisplay:10.37,2013-09-19 19:17:00,
2013-09-19 14:18:00,82.0,68.2,28.56,South,180,5.4,5.4,63,0.00,CLR,,0.78,WeatherDisplay:10.37,2013-09-19 19:18:00,
2013-09-19 14:19:00,82.0,68.2,28.56,SSW,202,6.2,6.2,63,0.00,CLR,,0.78,WeatherDisplay:10.37,2013-09-19 19:19:00,
2013-09-19 14:20:00,81.7,68.3,28.56,South,180,5.8,5.8,64,0.00,CLR,,0.78,WeatherDisplay:10.37,2013-09-19 19:20:00,
2013-09-19 14:22:00,81.5,67.7,28.56,SSW,202,5.8,5.8,63,0.00,CLR,,0.78,WeatherDisplay:10.37,2013-09-19 19:22:00,
2013-09-19 14:23:00,81.5,68.1,28.56,WNW,292,5.8,5.8,64,0.00,CLR,,0.78,WeatherDisplay:10.37,2013-09-19 19:23:00,
2013-09-19 14:25:00,81.3,68.0,28.56,SSW,202,5.8,5.8,64,0.00,CLR,,0.78,WeatherDisplay:10.37,2013-09-19 19:25:00,
2013-09-19 14:27:00,81.1,67.8,28.56,North,0,4.6,4.6,64,0.00,CLR,,0.78,WeatherDisplay:10.37,2013-09-19 19:27:00,
2013-09-19 14:28:00,81.1,68.3,28.56,WSW,248,4.6,4.6,65,0.00,CLR,,0.78,WeatherDisplay:10.37,2013-09-19 19:28:00,
2013-09-19 14:30:00,81.3,68.0,28.56,SSW,202,7.1,7.1,64,0.00,CLR,,0.78,WeatherDisplay:10.37,2013-09-19 19:30:00,
2013-09-19 14:32:00,81.1,67.8,28.56,SW,225,5.8,5.8,64,0.00,CLR,,0.78,WeatherDisplay:10.37,2013-09-19 19:32:00,
2013-09-19 14:33:00,81.3,68.4,28.56,WNW,292,3.5,3.5,65,0.00,CLR,,0.78,WeatherDisplay:10.37,2013-09-19 19:33:00,
2013-09-19 14:35:00,81.5,68.1,28.56,SSE,158,5.8,5.8,64,0.00,CLR,,0.78,WeatherDisplay:10.37,2013-09-19 19:35:00,
2013-09-19 14:37:00,81.5,68.6,28.56,SE,135,5.8,5.8,65,0.00,CLR,,0.78,WeatherDisplay:10.37,2013-09-19 19:37:00,
2013-09-19 14:38:00,81.7,68.8,28.56,SSE,158,4.6,4.6,65,0.00,CLR,,0.78,WeatherDisplay:10.37,2013-09-19 19:38:00,
2013-09-19 14:40:00,82.4,69.9,28.53,SSE,158,3.1,0.0,66,0.00,CLR,,0.78,WeatherDisplay:10.37,2013-09-19 19:40:00,
2013-09-19 14:41:00,82.6,70.1,28.53,WSW,248,3.5,3.5,66,0.00,CLR,,0.78,WeatherDisplay:10.37,2013-09-19 19:41:00,
2013-09-19 14:42:00,82.4,69.0,28.53,WNW,292,5.4,5.4,64,0.00,CLR,,0.78,WeatherDisplay:10.37,2013-09-19 19:42:00,
2013-09-19 14:43:00,82.4,69.0,28.53,South,180,5.9,5.9,64,0.00,CLR,,0.78,WeatherDisplay:10.37,2013-09-19 19:43:00,
2013-09-19 14:46:00,82.4,69.4,28.53,WSW,248,3.6,3.6,65,0.00,CLR,,0.78,WeatherDisplay:10.37,2013-09-19 19:46:00,
2013-09-19 14:47:00,82.9,69.5,28.53,SSE,158,4.6,4.6,64,0.00,CLR,,0.78,WeatherDisplay:10.37,2013-09-19 19:47:00,
2013-09-19 14:48:00,82.9,69.5,28.53,West,270,3.5,3.5,64,0.00,CLR,,0.78,WeatherDisplay:10.37,2013-09-19 19:48:00,
2013-09-19 14:49:00,83.1,69.2,28.53,SW,225,3.5,3.6,63,0.00,CLR,,0.78,WeatherDisplay:10.37,2013-09-19 19:49:00,
2013-09-19 14:51:00,84.2,70.7,28.53,South,180,2.3,3.3,64,0.00,CLR,,0.78,WeatherDisplay:10.37,2013-09-19 19:51:00,
2013-09-19 14:52:00,84.4,69.9,28.53,South,180,2.3,3.3,62,0.00,CLR,,0.78,WeatherDisplay:10.37,2013-09-19 19:52:00,
2013-09-19 14:53:00,84.6,70.1,28.53,South,180,2.3,3.3,62,0.00,CLR,,0.78,WeatherDisplay:10.37,2013-09-19 19:53:00,
2013-09-19 14:54:00,84.4,69.5,28.53,SE,135,4.6,4.6,61,0.00,CLR,,0.78,WeatherDisplay:10.37,2013-09-19 19:54:00,
2013-09-19 14:56:00,84.6,69.6,28.53,South,180,8.1,8.1,61,0.00,CLR,,0.78,WeatherDisplay:10.37,2013-09-19 19:56:00,
2013-09-19 14:57:00,84.6,69.6,28.53,SSW,202,3.5,3.5,61,0.00,CLR,,0.78,WeatherDisplay:10.37,2013-09-19 19:57:00,
2013-09-19 14:58:00,84.6,68.7,28.53,SSE,158,6.4,6.4,59,0.00,CLR,,0.78,WeatherDisplay:10.37,2013-09-19 19:58:00,
2013-09-19 14:59:00,84.6,68.7,28.53,SSE,158,6.9,6.9,59,0.00,CLR,,0.78,WeatherDisplay:10.37,2013-09-19 19:59:00,
2013-09-19 15:02:00,85.3,69.8,28.53,SW,225,2.3,2.3,60,0.00,CLR,,0.78,WeatherDisplay:10.37,2013-09-19 20:02:00,
2013-09-19 15:03:00,84.9,69.0,28.53,SW,225,5.8,5.8,59,0.00,CLR,,0.78,WeatherDisplay:10.37,2013-09-19 20:03:00,
2013-09-19 15:04:00,84.6,69.1,28.53,SSW,202,5.8,5.8,60,0.00,CLR,,0.78,WeatherDisplay:10.37,2013-09-19 20:04:00,
2013-09-19 15:07:00,83.7,68.3,28.53,SSW,202,5.8,5.8,60,0.00,CLR,,0.78,WeatherDisplay:10.37,2013-09-19 20:07:00,
2013-09-19 15:08:00,83.7,68.3,28.53,WSW,248,5.8,5.8,60,0.00,CLR,,0.78,WeatherDisplay:10.37,2013-09-19 20:08:00,
2013-09-19 15:09:00,83.7,68.3,28.53,WSW,248,3.6,3.6,60,0.00,CLR,,0.78,WeatherDisplay:10.37,2013-09-19 20:09:00,
2013-09-19 15:13:00,83.3,68.9,28.56,SSW,202,2.3,2.3,62,0.00,CLR,,0.78,WeatherDisplay:10.37,2013-09-19 20:13:00,
2013-09-19 15:14:00,82.8,68.4,28.56,South,180,5.8,5.8,62,0.00,CLR,,0.78,WeatherDisplay:10.37,2013-09-19 20:14:00,
2013-09-19 15:15:00,82.8,68.9,28.56,NNW,338,3.5,3.5,63,0.00,CLR,,0.78,WeatherDisplay:10.37,2013-09-19 20:15:00,
2013-09-19 15:18:00,82.8,68.9,28.56,WSW,248,3.5,3.5,63,0.00,CLR,,0.78,WeatherDisplay:10.37,2013-09-19 20:18:00,
2013-09-19 15:19:00,82.8,68.9,28.56,SSE,158,4.6,4.6,63,0.00,CLR,,0.78,WeatherDisplay:10.37,2013-09-19 20:19:00,
2013-09-19 15:20:00,82.9,69.0,28.56,SSE,158,3.5,3.5,63,0.00,CLR,,0.78,WeatherDisplay:10.37,2013-09-19 20:20:00,
2013-09-19 15:23:00,82.6,68.7,28.56,SSW,202,2.3,2.3,63,0.00,CLR,,0.78,WeatherDisplay:10.37,2013-09-19 20:23:00,
2013-09-19 15:24:00,82.6,68.7,28.56,SSW,202,2.3,2.3,63,0.00,CLR,,0.78,WeatherDisplay:10.37,2013-09-19 20:24:00,
2013-09-19 15:25:00,82.6,68.7,28.53,SSW,202,2.3,2.3,63,0.00,CLR,,0.78,WeatherDisplay:10.37,2013-09-19 20:25:00,
2013-09-19 15:26:00,82.6,68.7,28.53,SSW,202,2.3,2.3,63,0.00,CLR,,0.78,WeatherDisplay:10.37,2013-09-19 20:26:00,
2013-09-19 15:28:00,82.4,69.0,28.53,SW,225,2.3,2.3,64,0.00,CLR,,0.78,WeatherDisplay:10.37,2013-09-19 20:28:00,
2013-09-19 15:29:00,82.4,69.0,28.53,South,180,2.3,2.3,64,0.00,CLR,,0.78,WeatherDisplay:10.37,2013-09-19 20:29:00,
2013-09-19 15:30:00,82.4,69.0,28.53,South,180,2.3,2.3,64,0.00,CLR,,0.78,WeatherDisplay:10.37,2013-09-19 20:30:00,
2013-09-19 15:31:00,82.4,69.0,28.53,South,180,2.3,2.3,64,0.00,CLR,,0.78,WeatherDisplay:10.37,2013-09-19 20:31:00,
2013-09-19 15:33:00,82.2,69.3,28.53,SSE,158,4.3,4.3,65,0.00,CLR,,0.78,WeatherDisplay:10.37,2013-09-19 20:33:00,
2013-09-19 15:34:00,82.0,69.1,28.53,SSE,158,4.6,4.6,65,0.00,CLR,,0.78,WeatherDisplay:10.37,2013-09-19 20:34:00,
2013-09-19 15:35:00,82.0,69.1,28.53,SSW,202,4.6,4.6,65,0.00,CLR,,0.78,WeatherDisplay:10.37,2013-09-19 20:35:00,
2013-09-19 15:36:00,82.0,69.1,28.53,South,180,4.6,4.6,65,0.00,CLR,,0.78,WeatherDisplay:10.37,2013-09-19 20:36:00,
2013-09-19 15:39:00,82.2,69.3,28.53,South,180,2.3,2.3,65,0.00,CLR,,0.78,WeatherDisplay:10.37,2013-09-19 20:39:00,
2013-09-19 15:40:00,82.4,69.4,28.53,SSW,202,2.3,2.3,65,0.00,CLR,,0.78,WeatherDisplay:10.37,2013-09-19 20:40:00,
2013-09-19 15:41:00,82.6,69.6,28.53,SSE,158,4.6,4.6,65,0.00,CLR,,0.78,WeatherDisplay:10.37,2013-09-19 20:41:00,
2013-09-19 15:44:00,82.4,69.0,28.53,West,270,4.6,4.6,64,0.00,CLR,,0.78,WeatherDisplay:10.37,2013-09-19 20:44:00,
2013-09-19 15:45:00,82.4,69.0,28.53,SSW,202,2.3,0.0,64,0.00,CLR,,0.78,WeatherDisplay:10.37,2013-09-19 20:45:00,
2013-09-19 15:46:00,82.4,69.0,28.53,SSW,202,2.3,2.3,64,0.00,CLR,,0.78,WeatherDisplay:10.37,2013-09-19 20:46:00,
2013-09-19 15:47:00,82.6,69.2,28.53,South,180,2.3,2.3,64,0.00,CLR,,0.78,WeatherDisplay:10.37,2013-09-19 20:47:00,
2013-09-19 15:49:00,82.2,68.8,28.53,WSW,248,3.5,3.5,64,0.00,CLR,,0.78,WeatherDisplay:10.37,2013-09-19 20:49:00,
2013-09-19 15:51:00,82.4,69.0,28.53,South,180,2.3,2.3,64,0.00,CLR,,0.78,WeatherDisplay:10.37,2013-09-19 20:51:00,
2013-09-19 15:52:00,82.4,69.0,28.53,SSW,202,2.3,2.3,64,0.00,CLR,,0.78,WeatherDisplay:10.37,2013-09-19 20:52:00,
2013-09-19 15:54:00,82.2,68.8,28.53,SSW,202,2.3,0.0,64,0.00,CLR,,0.78,WeatherDisplay:10.37,2013-09-19 20:54:00,
2013-09-19 15:56:00,82.2,69.3,28.53,SSW,202,1.4,1.6,65,0.00,CLR,,0.78,WeatherDisplay:10.37,2013-09-19 20:56:00,
2013-09-19 15:57:00,82.2,69.7,28.53,West,270,1.2,0.0,66,0.00,CLR,,0.78,WeatherDisplay:10.37,2013-09-19 20:57:00,
2013-09-19 15:59:00,82.8,70.2,28.53,West,270,1.2,0.0,66,0.00,CLR,,0.78,WeatherDisplay:10.37,2013-09-19 20:59:00,
2013-09-19 16:01:00,83.1,70.1,28.53,SW,225,2.6,2.6,65,0.00,CLR,,0.78,WeatherDisplay:10.37,2013-09-19 21:01:00,
2013-09-19 16:02:00,83.1,70.1,28.53,SW,225,2.6,2.6,65,0.00,CLR,,0.78,WeatherDisplay:10.37,2013-09-19 21:02:00,
2013-09-19 16:03:00,83.1,70.1,28.53,SW,225,5.8,5.8,65,0.00,CLR,,0.78,WeatherDisplay:10.37,2013-09-19 21:03:00,
2013-09-19 16:05:00,82.8,69.3,28.53,West,270,5.8,5.8,64,0.00,CLR,,0.78,WeatherDisplay:10.37,2013-09-19 21:05:00,
2013-09-19 16:06:00,82.4,69.0,28.53,WSW,248,2.4,2.6,64,0.00,CLR,,0.78,WeatherDisplay:10.37,2013-09-19 21:06:00,
2013-09-19 16:07:00,82.2,69.3,28.53,West,270,2.3,2.3,65,0.00,CLR,,0.78,WeatherDisplay:10.37,2013-09-19 21:07:00,
2013-09-19 16:08:00,82.0,69.1,28.53,SW,225,2.2,2.2,65,0.00,CLR,,0.78,WeatherDisplay:10.37,2013-09-19 21:08:00,
2013-09-19 16:10:00,81.9,68.9,28.50,SW,225,3.5,3.5,65,0.00,CLR,,0.78,WeatherDisplay:10.37,2013-09-19 21:10:00,
2013-09-19 16:11:00,81.5,68.6,28.50,SSE,158,3.1,3.1,65,0.00,CLR,,0.78,WeatherDisplay:10.37,2013-09-19 21:11:00,
2013-09-19 16:12:00,81.5,68.6,28.50,South,180,4.7,4.7,65,0.00,CLR,,0.78,WeatherDisplay:10.37,2013-09-19 21:12:00,
2013-09-19 16:13:00,81.1,68.7,28.50,South,180,4.6,4.6,66,0.00,CLR,,0.78,WeatherDisplay:10.37,2013-09-19 21:13:00,
2013-09-19 16:15:00,81.0,68.5,28.50,West,270,1.4,0.0,66,0.00,CLR,,0.78,WeatherDisplay:10.37,2013-09-19 21:15:00,
2013-09-19 16:16:00,81.0,68.5,28.50,South,180,2.3,2.3,66,0.00,CLR,,0.78,WeatherDisplay:10.37,2013-09-19 21:16:00,
2013-09-19 16:17:00,80.8,68.4,28.50,South,180,2.3,0.0,66,0.00,CLR,,0.78,WeatherDisplay:10.37,2013-09-19 21:17:00,
2013-09-19 16:18:00,80.8,68.8,28.50,SSE,158,1.6,0.0,67,0.00,CLR,,0.78,WeatherDisplay:10.37,2013-09-19 21:18:00,
2013-09-19 16:20:00,80.6,68.6,28.50,SSE,158,0.0,0.0,67,0.00,CLR,,0.78,WeatherDisplay:10.37,2013-09-19 21:20:00,
2013-09-19 16:22:00,80.6,68.6,28.50,WSW,248,1.2,0.0,67,0.00,CLR,,0.78,WeatherDisplay:10.37,2013-09-19 21:22:00,
2013-09-19 16:23:00,80.4,68.9,28.50,WSW,248,1.2,0.0,68,0.00,CLR,,0.78,WeatherDisplay:10.37,2013-09-19 21:23:00,
2013-09-19 16:26:00,80.2,68.7,28.53,SW,225,0.9,0.0,68,0.00,CLR,,0.78,WeatherDisplay:10.37,2013-09-19 21:26:00,
2013-09-19 16:27:00,80.1,69.0,28.53,SW,225,1.2,0.0,69,0.00,CLR,,0.78,WeatherDisplay:10.37,2013-09-19 21:27:00,
2013-09-19 16:28:00,80.1,69.0,28.53,SSW,202,2.0,0.0,69,0.00,CLR,,0.78,WeatherDisplay:10.37,2013-09-19 21:28:00,
2013-09-19 16:31:00,79.5,68.5,28.53,SSW,202,2.3,0.0,69,0.00,CLR,,0.78,WeatherDisplay:10.37,2013-09-19 21:31:00,
2013-09-19 16:32:00,79.5,68.5,28.53,South,180,1.6,0.0,69,0.00,CLR,,0.78,WeatherDisplay:10.37,2013-09-19 21:32:00,
2013-09-19 16:33:00,79.5,68.5,28.53,South,180,1.2,0.0,69,0.00,CLR,,0.78,WeatherDisplay:10.37,2013-09-19 21:33:00,
2013-09-19 16:34:00,79.5,68.5,28.53,SSW,202,0.0,0.0,69,0.00,CLR,,0.78,WeatherDisplay:10.37,2013-09-19 21:34:00,
2013-09-19 16:36:00,79.3,68.7,28.53,SSE,158,1.2,0.0,70,0.00,CLR,,0.78,WeatherDisplay:10.37,2013-09-19 21:36:00,
2013-09-19 16:37:00,79.3,68.7,28.53,West,270,2.0,2.0,70,0.00,CLR,,0.78,WeatherDisplay:10.37,2013-09-19 21:37:00,
2013-09-19 16:38:00,79.2,68.5,28.53,SSW,202,2.3,2.3,70,0.00,CLR,,0.78,WeatherDisplay:10.37,2013-09-19 21:38:00,
2013-09-19 16:39:00,79.2,68.5,28.53,SSW,202,0.0,0.0,70,0.00,CLR,,0.78,WeatherDisplay:10.37,2013-09-19 21:39:00,
2013-09-19 16:41:00,79.0,68.4,28.53,WSW,248,1.2,0.0,70,0.00,CLR,,0.78,WeatherDisplay:10.37,2013-09-19 21:41:00,
2013-09-19 16:42:00,79.0,68.8,28.53,SW,225,1.2,0.0,71,0.00,CLR,,0.78,WeatherDisplay:10.37,2013-09-19 21:42:00,
2013-09-19 16:43:00,78.8,68.6,28.53,SW,225,1.2,0.0,71,0.00,CLR,,0.78,WeatherDisplay:10.37,2013-09-19 21:43:00,
2013-09-19 16:45:00,78.6,68.8,28.53,SW,225,0.0,0.0,72,0.00,CLR,,0.78,WeatherDisplay:10.37,2013-09-19 21:45:00,
2013-09-19 16:46:00,78.6,68.8,28.53,SW,225,0.0,0.0,72,0.00,CLR,,0.78,WeatherDisplay:10.37,2013-09-19 21:46:00,
2013-09-19 16:48:00,78.4,68.7,28.53,SW,225,0.0,0.0,72,0.00,CLR,,0.78,WeatherDisplay:10.37,2013-09-19 21:48:00,
2013-09-19 16:49:00,78.4,69.1,28.53,SW,225,0.0,0.0,73,0.00,CLR,,0.78,WeatherDisplay:10.37,2013-09-19 21:49:00,
2013-09-19 16:51:00,78.3,68.9,28.53,SW,225,0.0,0.0,73,0.00,CLR,,0.78,WeatherDisplay:10.37,2013-09-19 21:51:00,
2013-09-19 16:53:00,78.3,68.9,28.53,West,270,2.3,2.3,73,0.00,CLR,,0.78,WeatherDisplay:10.37,2013-09-19 21:53:00,
2013-09-19 16:54:00,78.1,68.7,28.53,WNW,292,2.3,2.3,73,0.00,CLR,,0.78,WeatherDisplay:10.37,2013-09-19 21:54:00,
2013-09-19 16:56:00,78.1,68.7,28.50,West,270,1.2,1.2,73,0.00,CLR,,0.78,WeatherDisplay:10.37,2013-09-19 21:56:00,
2013-09-19 16:58:00,77.9,68.5,28.50,NW,315,2.3,2.3,73,0.00,CLR,,0.78,WeatherDisplay:10.37,2013-09-19 21:58:00,
2013-09-19 16:59:00,77.9,68.5,28.50,NW,315,2.3,2.3,73,0.00,CLR,,0.78,WeatherDisplay:10.37,2013-09-19 21:59:00,
2013-09-19 17:02:00,77.5,68.6,28.50,NW,315,0.0,0.0,74,0.00,CLR,,0.78,WeatherDisplay:10.37,2013-09-19 22:02:00,
2013-09-19 17:03:00,77.5,69.0,28.50,NW,315,0.0,0.0,75,0.00,CLR,,0.78,WeatherDisplay:10.37,2013-09-19 22:03:00,
2013-09-19 17:04:00,77.4,68.8,28.50,NW,315,0.0,0.0,75,0.00,CLR,,0.78,WeatherDisplay:10.37,2013-09-19 22:04:00,
2013-09-19 17:05:00,77.4,68.9,28.50,NW,311,0.0,0.0,75,0.00,CLR,,0.78,WeatherDisplay:10.37,2013-09-19 22:05:00,
2013-09-19 17:07:00,77.2,68.6,28.50,North,0,0.0,0.0,75,0.00,CLR,,0.78,WeatherDisplay:10.37,2013-09-19 22:07:00,
2013-09-19 17:08:00,77.0,68.5,28.50,North,0,0.0,0.0,75,0.00,CLR,,0.78,WeatherDisplay:10.37,2013-09-19 22:08:00,
2013-09-19 17:10:00,77.0,68.9,28.47,North,0,0.0,0.0,76,0.00,CLR,,0.78,WeatherDisplay:10.37,2013-09-19 22:10:00,
2013-09-19 17:12:00,76.8,69.1,28.47,North,0,0.0,0.0,77,0.00,CLR,,0.78,WeatherDisplay:10.37,2013-09-19 22:12:00,
2013-09-19 17:14:00,76.8,69.1,28.47,North,0,0.0,0.0,77,0.00,CLR,,0.78,WeatherDisplay:10.37,2013-09-19 22:14:00,
2013-09-19 17:15:00,76.8,69.1,28.47,North,0,0.0,0.0,77,0.00,CLR,,0.78,WeatherDisplay:10.37,2013-09-19 22:15:00,
2013-09-19 17:17:00,76.6,68.9,28.47,North,0,0.0,0.0,77,0.00,CLR,,0.78,WeatherDisplay:10.37,2013-09-19 22:17:00,
2013-09-19 17:19:00,76.6,69.3,28.47,North,0,0.0,0.0,78,0.00,CLR,,0.78,WeatherDisplay:10.37,2013-09-19 22:19:00,
2013-09-19 17:20:00,76.6,68.9,28.47,North,0,0.0,0.0,77,0.00,CLR,,0.78,WeatherDisplay:10.37,2013-09-19 22:20:00,
2013-09-19 17:22:00,76.5,69.1,28.47,North,0,1.2,1.2,78,0.00,CLR,,0.78,WeatherDisplay:10.37,2013-09-19 22:22:00,
2013-09-19 17:23:00,76.5,69.5,28.47,North,0,1.2,0.0,79,0.00,CLR,,0.78,WeatherDisplay:10.37,2013-09-19 22:23:00,
2013-09-19 17:24:00,76.3,69.3,28.47,North,0,1.2,0.0,79,0.00,CLR,,0.78,WeatherDisplay:10.37,2013-09-19 22:24:00,
2013-09-19 17:25:00,76.3,69.3,28.50,North,0,0.0,0.0,79,0.00,CLR,,0.78,WeatherDisplay:10.37,2013-09-19 22:25:00,
2013-09-19 17:26:00,76.3,69.3,28.50,North,0,0.0,0.0,79,0.00,CLR,,0.78,WeatherDisplay:10.37,2013-09-19 22:26:00,
2013-09-19 17:27:00,76.3,69.7,28.50,North,0,0.0,0.0,80,0.00,CLR,,0.78,WeatherDisplay:10.37,2013-09-19 22:27:00,
2013-09-19 17:28:00,76.1,69.1,28.50,SSE,158,2.0,0.0,79,0.00,CLR,,0.78,WeatherDisplay:10.37,2013-09-19 22:28:00,
2013-09-19 17:29:00,76.1,69.1,28.50,South,180,4.0,4.0,79,0.00,CLR,,0.78,WeatherDisplay:10.37,2013-09-19 22:29:00,
2013-09-19 17:31:00,76.1,69.8,28.50,South,180,4.9,4.9,81,0.00,CLR,,0.78,WeatherDisplay:10.37,2013-09-19 22:31:00,
2013-09-19 17:33:00,75.9,70.7,28.50,SW,225,4.6,4.6,84,0.00,CLR,,0.78,WeatherDisplay:10.37,2013-09-19 22:33:00,
2013-09-19 17:34:00,75.7,70.6,28.50,SSE,158,6.9,6.9,84,0.00,CLR,,0.78,WeatherDisplay:10.37,2013-09-19 22:34:00,
2013-09-19 17:35:00,75.7,70.6,28.50,South,180,7.6,7.6,84,0.00,CLR,,0.78,WeatherDisplay:10.37,2013-09-19 22:35:00,
2013-09-19 17:36:00,75.7,70.2,28.50,South,180,10.4,10.4,83,0.00,CLR,,0.78,WeatherDisplay:10.37,2013-09-19 22:36:00,
2013-09-19 17:38:00,75.7,69.9,28.50,SSW,202,4.6,4.6,82,0.00,CLR,,0.78,WeatherDisplay:10.37,2013-09-19 22:38:00,
2013-09-19 17:40:00,75.7,69.9,28.50,SSE,158,4.6,4.6,82,0.00,CLR,,0.78,WeatherDisplay:10.37,2013-09-19 22:40:00,
2013-09-19 17:41:00,75.7,69.5,28.50,SE,135,3.8,4.5,81,0.00,CLR,,0.78,WeatherDisplay:10.37,2013-09-19 22:41:00,
2013-09-19 17:43:00,75.7,69.1,28.50,SSE,158,6.9,6.9,80,0.00,CLR,,0.78,WeatherDisplay:10.37,2013-09-19 22:43:00,
2013-09-19 17:45:00,75.7,69.1,28.50,SSE,158,6.9,6.9,80,0.00,CLR,,0.78,WeatherDisplay:10.37,2013-09-19 22:45:00,
2013-09-19 17:46:00,75.7,69.1,28.50,SSW,202,5.8,5.8,80,0.00,CLR,,0.78,WeatherDisplay:10.37,2013-09-19 22:46:00,
2013-09-19 17:48:00,75.7,69.1,28.50,South,180,6.9,6.9,80,0.00,CLR,,0.78,WeatherDisplay:10.37,2013-09-19 22:48:00,
2013-09-19 17:50:00,75.7,69.1,28.50,South,180,5.8,5.8,80,0.00,CLR,,0.78,WeatherDisplay:10.37,2013-09-19 22:50:00,
2013-09-19 17:51:00,75.7,69.1,28.50,West,270,8.1,8.1,80,0.00,CLR,,0.78,WeatherDisplay:10.37,2013-09-19 22:51:00,
2013-09-19 17:53:00,75.6,69.0,28.50,SSE,158,9.8,9.8,80,0.00,CLR,,0.78,WeatherDisplay:10.37,2013-09-19 22:53:00,
2013-09-19 17:55:00,75.4,68.4,28.47,SSE,158,12.7,12.7,79,0.00,CLR,,0.78,WeatherDisplay:10.37,2013-09-19 22:55:00,
2013-09-19 17:56:00,75.4,68.4,28.47,SW,225,5.8,5.8,79,0.00,CLR,,0.78,WeatherDisplay:10.37,2013-09-19 22:56:00,
2013-09-19 17:57:00,75.4,68.4,28.47,SSE,158,6.2,6.2,79,0.00,CLR,,0.78,WeatherDisplay:10.37,2013-09-19 22:57:00,
2013-09-19 17:58:00,75.2,68.2,28.47,SSW,202,5.8,5.8,79,0.00,CLR,,0.78,WeatherDisplay:10.37,2013-09-19 22:58:00,
2013-09-19 18:00:00,75.2,68.2,28.47,SW,225,8.1,8.1,79,0.00,CLR,,0.78,WeatherDisplay:10.37,2013-09-19 23:00:00,
2013-09-19 18:01:00,75.2,68.2,28.47,SSW,202,5.8,5.8,79,0.00,CLR,,0.78,WeatherDisplay:10.37,2013-09-19 23:01:00,
2013-09-19 18:02:00,75.2,68.2,28.47,SSW,202,5.8,5.8,79,0.00,CLR,,0.78,WeatherDisplay:10.37,2013-09-19 23:02:00,
2013-09-19 18:04:00,75.0,68.4,28.47,SSW,202,9.2,9.2,80,0.00,CLR,,0.78,WeatherDisplay:10.37,2013-09-19 23:04:00,
2013-09-19 18:05:00,75.0,68.4,28.47,SSE,158,9.2,9.2,80,0.00,CLR,,0.78,WeatherDisplay:10.37,2013-09-19 23:05:00,
2013-09-19 18:06:00,75.0,68.4,28.47,WSW,248,8.1,8.1,80,0.00,CLR,,0.78,WeatherDisplay:10.37,2013-09-19 23:06:00,
2013-09-19 18:07:00,75.0,68.4,28.47,WSW,248,8.1,8.1,80,0.00,CLR,,0.78,WeatherDisplay:10.37,2013-09-19 23:07:00,
2013-09-19 18:09:00,74.7,68.4,28.50,SSE,158,5.8,5.8,81,0.00,CLR,,0.78,WeatherDisplay:10.37,2013-09-19 23:09:00,
2013-09-19 18:10:00,74.7,68.4,28.50,South,180,8.1,8.1,81,0.00,CLR,,0.78,WeatherDisplay:10.37,2013-09-19 23:10:00,
2013-09-19 18:12:00,74.5,68.3,28.50,SW,225,9.2,9.2,81,0.00,CLR,,0.78,WeatherDisplay:10.37,2013-09-19 23:12:00,
2013-09-19 18:14:00,74.3,68.1,28.50,SSE,158,5.8,5.8,81,0.00,CLR,,0.78,WeatherDisplay:10.37,2013-09-19 23:14:00,
2013-09-19 18:15:00,74.3,68.1,28.50,SSW,202,7.1,7.1,81,0.00,CLR,,0.78,WeatherDisplay:10.37,2013-09-19 23:15:00,
2013-09-19 18:17:00,74.1,67.9,28.50,South,180,5.8,5.8,81,0.00,CLR,,0.78,WeatherDisplay:10.37,2013-09-19 23:17:00,
2013-09-19 18:19:00,74.1,68.3,28.50,South,180,4.6,4.6,82,0.00,CLR,,0.78,WeatherDisplay:10.37,2013-09-19 23:19:00,
2013-09-19 18:20:00,73.9,68.1,28.50,SSE,158,8.1,8.1,82,0.00,CLR,,0.78,WeatherDisplay:10.37,2013-09-19 23:20:00,
2013-09-19 18:21:00,73.9,68.1,28.50,South,180,8.1,8.1,82,0.00,CLR,,0.78,WeatherDisplay:10.37,2013-09-19 23:21:00,
2013-09-19 18:22:00,73.9,68.1,28.50,SSE,158,10.4,10.4,82,0.00,CLR,,0.78,WeatherDisplay:10.37,2013-09-19 23:22:00,
2013-09-19 18:25:00,73.6,68.1,28.50,South,180,6.9,6.9,83,0.00,CLR,,0.78,WeatherDisplay:10.37,2013-09-19 23:25:00,
2013-09-19 18:26:00,73.6,68.1,28.50,SSW,202,6.9,6.9,83,0.00,CLR,,0.78,WeatherDisplay:10.37,2013-09-19 23:26:00,
2013-09-19 18:28:00,73.4,67.9,28.50,SW,225,10.4,10.4,83,0.00,CLR,,0.78,WeatherDisplay:10.37,2013-09-19 23:28:00,
2013-09-19 18:30:00,73.4,67.9,28.50,SW,225,4.6,4.6,83,0.00,CLR,,0.78,WeatherDisplay:10.37,2013-09-19 23:30:00,
2013-09-19 18:31:00,73.2,68.1,28.50,WSW,248,7.4,7.4,84,0.00,CLR,,0.78,WeatherDisplay:10.37,2013-09-19 23:31:00,
2013-09-19 18:33:00,73.2,68.1,28.50,NW,315,4.6,4.6,84,0.00,CLR,,0.78,WeatherDisplay:10.37,2013-09-19 23:33:00,
2013-09-19 18:35:00,72.9,67.4,28.50,WSW,248,6.9,6.9,83,0.00,CLR,,0.78,WeatherDisplay:10.37,2013-09-19 23:35:00,
2013-09-19 18:36:00,72.9,67.4,28.50,SW,225,6.9,6.9,83,0.00,CLR,,0.78,WeatherDisplay:10.37,2013-09-19 23:36:00,
2013-09-19 18:38:00,72.9,67.4,28.50,SSW,202,9.8,9.8,83,0.00,CLR,,0.78,WeatherDisplay:10.37,2013-09-19 23:38:00,
2013-09-19 18:40:00,72.7,67.2,28.50,SSW,202,4.6,4.6,83,0.00,CLR,,0.78,WeatherDisplay:10.37,2013-09-19 23:40:00,
2013-09-19 18:41:00,72.7,67.2,28.50,WSW,248,4.6,4.6,83,0.00,CLR,,0.78,WeatherDisplay:10.37,2013-09-19 23:41:00,
2013-09-19 18:43:00,72.5,67.0,28.50,South,180,4.0,4.0,83,0.00,CLR,,0.78,WeatherDisplay:10.37,2013-09-19 23:43:00,
2013-09-19 18:46:00,72.5,67.0,28.50,ESE,112,2.3,2.3,83,0.00,CLR,,0.78,WeatherDisplay:10.37,2013-09-19 23:46:00,
2013-09-19 18:47:00,72.3,66.9,28.50,SSW,202,3.1,3.1,83,0.00,CLR,,0.78,WeatherDisplay:10.37,2013-09-19 23:47:00,
2013-09-19 18:49:00,72.3,67.2,28.50,SSE,158,5.8,5.8,84,0.00,CLR,,0.78,WeatherDisplay:10.37,2013-09-19 23:49:00,
2013-09-19 18:51:00,72.3,67.2,28.50,SSE,158,4.6,4.6,84,0.00,CLR,,0.78,WeatherDisplay:10.37,2013-09-19 23:51:00,
2013-09-19 18:52:00,72.3,67.2,28.50,SSW,202,4.6,4.6,84,0.00,CLR,,0.78,WeatherDisplay:10.37,2013-09-19 23:52:00,
2013-09-19 18:54:00,72.1,67.0,28.50,SE,135,5.8,5.8,84,0.00,CLR,,0.78,WeatherDisplay:10.37,2013-09-19 23:54:00,
2013-09-19 18:55:00,72.1,67.0,28.53,SW,225,4.6,4.6,84,0.00,CLR,,0.78,WeatherDisplay:10.37,2013-09-19 23:55:00,
2013-09-19 18:56:00,72.0,67.2,28.53,SSE,158,4.6,4.6,85,0.00,CLR,,0.78,WeatherDisplay:10.37,2013-09-19 23:56:00,
2013-09-19 18:57:00,72.0,66.9,28.53,South,180,4.9,4.9,84,0.00,CLR,,0.78,WeatherDisplay:10.37,2013-09-19 23:57:00,
2013-09-19 18:58:00,72.0,66.9,28.53,SSW,202,4.6,4.6,84,0.00,CLR,,0.78,WeatherDisplay:10.37,2013-09-19 23:58:00,
2013-09-19 18:59:00,72.0,66.9,28.53,SSE,158,2.6,2.6,84,0.00,CLR,,0.78,WeatherDisplay:10.37,2013-09-19 23:59:00,
2013-09-19 19:00:00,72.0,66.9,28.53,SSE,158,3.1,3.1,84,0.00,CLR,,0.78,WeatherDisplay:10.37,2013-09-20 00:00:00,
2013-09-19 19:01:00,71.8,66.7,28.53,SSW,202,3.5,3.5,84,0.00,CLR,,0.78,WeatherDisplay:10.37,2013-09-20 00:01:00,
2013-09-19 19:02:00,71.8,66.7,28.53,SSW,202,3.1,3.1,84,0.00,CLR,,0.78,WeatherDisplay:10.37,2013-09-20 00:02:00,
2013-09-19 19:03:00,71.8,66.7,28.53,SSW,202,3.5,3.5,84,0.00,CLR,,0.78,WeatherDisplay:10.37,2013-09-20 00:03:00,
2013-09-19 19:04:00,71.8,66.7,28.53,South,180,4.6,4.6,84,0.00,CLR,,0.78,WeatherDisplay:10.37,2013-09-20 00:04:00,
2013-09-19 19:05:00,71.8,66.7,28.53,SSW,202,2.6,2.6,84,0.00,CLR,,0.78,WeatherDisplay:10.37,2013-09-20 00:05:00,
2013-09-19 19:06:00,71.8,67.0,28.53,WNW,292,4.0,4.0,85,0.00,CLR,,0.78,WeatherDisplay:10.37,2013-09-20 00:06:00,
2013-09-19 19:08:00,71.8,67.0,28.53,SSE,158,4.6,4.6,85,0.00,CLR,,0.78,WeatherDisplay:10.37,2013-09-20 00:08:00,
2013-09-19 19:09:00,71.6,66.8,28.53,SW,225,3.6,3.6,85,0.00,CLR,,0.78,WeatherDisplay:10.37,2013-09-20 00:09:00,
2013-09-19 19:11:00,71.6,66.8,28.53,South,180,3.5,3.5,85,0.00,CLR,,0.78,WeatherDisplay:10.37,2013-09-20 00:11:00,
2013-09-19 19:13:00,71.6,66.8,28.53,West,270,2.3,2.3,85,0.00,CLR,,0.78,WeatherDisplay:10.37,2013-09-20 00:13:00,
2013-09-19 19:14:00,71.4,66.7,28.53,SW,225,3.5,3.5,85,0.00,CLR,,0.78,WeatherDisplay:10.37,2013-09-20 00:14:00,
2013-09-19 19:15:00,71.4,66.7,28.53,SSE,158,4.0,4.0,85,0.00,CLR,,0.78,WeatherDisplay:10.37,2013-09-20 00:15:00,
2013-09-19 19:16:00,71.4,66.7,28.53,WSW,248,9.2,9.2,85,0.00,CLR,,0.78,WeatherDisplay:10.37,2013-09-20 00:16:00,
2013-09-19 19:17:00,71.4,66.7,28.53,SW,225,9.2,9.2,85,0.00,CLR,,0.78,WeatherDisplay:10.37,2013-09-20 00:17:00,
2013-09-19 19:18:00,71.4,66.7,28.53,SE,135,3.5,3.5,85,0.00,CLR,,0.78,WeatherDisplay:10.37,2013-09-20 00:18:00,
2013-09-19 19:19:00,71.2,66.5,28.53,East,90,3.5,3.5,85,0.00,CLR,,0.78,WeatherDisplay:10.37,2013-09-20 00:19:00,
2013-09-19 19:20:00,71.2,66.5,28.53,WSW,248,3.5,3.5,85,0.00,CLR,,0.78,WeatherDisplay:10.37,2013-09-20 00:20:00,
2013-09-19 19:21:00,71.2,66.5,28.53,SW,225,2.9,2.9,85,0.00,CLR,,0.78,WeatherDisplay:10.37,2013-09-20 00:21:00,
2013-09-19 19:22:00,71.2,66.5,28.53,SSW,202,2.3,2.3,85,0.00,CLR,,0.78,WeatherDisplay:10.37,2013-09-20 00:22:00,
2013-09-19 19:24:00,71.1,66.3,28.53,West,270,5.8,5.8,85,0.00,CLR,,0.78,WeatherDisplay:10.37,2013-09-20 00:24:00,
2013-09-19 19:25:00,71.1,66.3,28.53,SW,225,3.5,3.5,85,0.00,CLR,,0.78,WeatherDisplay:10.37,2013-09-20 00:25:00,
2013-09-19 19:27:00,71.1,66.3,28.53,SSW,202,2.6,2.6,85,0.00,CLR,,0.78,WeatherDisplay:10.37,2013-09-20 00:27:00,
2013-09-19 19:29:00,70.9,66.1,28.53,SW,225,2.3,2.3,85,0.00,CLR,,0.78,WeatherDisplay:10.37,2013-09-20 00:29:00,
2013-09-19 19:30:00,70.9,66.1,28.53,WSW,248,2.3,2.3,85,0.00,CLR,,0.78,WeatherDisplay:10.37,2013-09-20 00:30:00,
2013-09-19 19:32:00,70.9,66.1,28.53,NNE,22,2.3,0.0,85,0.00,CLR,,0.78,WeatherDisplay:10.37,2013-09-20 00:32:00,
2013-09-19 19:34:00,70.9,66.1,28.53,SSW,202,1.6,0.0,85,0.00,CLR,,0.78,WeatherDisplay:10.37,2013-09-20 00:34:00,
2013-09-19 19:35:00,70.9,66.1,28.53,WSW,248,1.2,1.2,85,0.00,CLR,,0.78,WeatherDisplay:10.37,2013-09-20 00:35:00,
2013-09-19 19:38:00,70.9,66.1,28.53,West,270,4.6,4.6,85,0.00,CLR,,0.78,WeatherDisplay:10.37,2013-09-20 00:38:00,
2013-09-19 19:39:00,70.9,66.1,28.53,WSW,248,3.5,3.5,85,0.00,CLR,,0.78,WeatherDisplay:10.37,2013-09-20 00:39:00,
2013-09-19 19:40:00,70.9,66.1,28.53,South,180,3.5,3.5,85,0.00,CLR,,0.78,WeatherDisplay:10.37,2013-09-20 00:40:00,
2013-09-19 19:43:00,70.9,66.1,28.53,West,270,2.3,2.3,85,0.00,CLR,,0.78,WeatherDisplay:10.37,2013-09-20 00:43:00,
2013-09-19 19:45:00,70.9,66.1,28.53,SSW,202,3.3,3.3,85,0.00,CLR,,0.78,WeatherDisplay:10.37,2013-09-20 00:45:00,
2013-09-19 19:48:00,70.7,66.0,28.53,SW,225,1.2,0.0,85,0.00,CLR,,0.78,WeatherDisplay:10.37,2013-09-20 00:48:00,
2013-09-19 19:50:00,70.7,66.0,28.53,South,180,2.6,2.6,85,0.00,CLR,,0.78,WeatherDisplay:10.37,2013-09-20 00:50:00,
2013-09-19 19:51:00,70.7,66.0,28.53,SSW,202,2.9,2.9,85,0.00,CLR,,0.78,WeatherDisplay:10.37,2013-09-20 00:51:00,
2013-09-19 19:54:00,70.7,66.0,28.53,South,180,3.5,3.5,85,0.00,CLR,,0.78,WeatherDisplay:10.37,2013-09-20 00:54:00,
2013-09-19 19:55:00,70.7,66.3,28.53,South,180,5.8,5.8,86,0.00,CLR,,0.78,WeatherDisplay:10.37,2013-09-20 00:55:00,
2013-09-19 19:56:00,70.7,66.3,28.53,SSW,202,5.8,5.8,86,0.00,CLR,,0.78,WeatherDisplay:10.37,2013-09-20 00:56:00,
2013-09-19 19:59:00,70.7,66.3,28.53,SSW,202,3.5,3.5,86,0.00,CLR,,0.78,WeatherDisplay:10.37,2013-09-20 00:59:00,
2013-09-19 20:00:00,70.7,66.3,28.53,South,180,3.5,3.5,86,0.00,CLR,,0.78,WeatherDisplay:10.37,2013-09-20 01:00:00,
2013-09-19 20:01:00,70.7,66.3,28.53,South,180,2.3,2.3,86,0.00,CLR,,0.78,WeatherDisplay:10.37,2013-09-20 01:01:00,
2013-09-19 20:04:00,70.7,66.3,28.53,SSW,202,2.3,2.3,86,0.00,CLR,,0.78,WeatherDisplay:10.37,2013-09-20 01:04:00,
2013-09-19 20:05:00,70.7,66.3,28.53,South,180,2.3,2.3,86,0.00,CLR,,0.78,WeatherDisplay:10.37,2013-09-20 01:05:00,
2013-09-19 20:06:00,70.7,66.3,28.53,SW,225,2.3,2.3,86,0.00,CLR,,0.78,WeatherDisplay:10.37,2013-09-20 01:06:00,
2013-09-19 20:09:00,70.7,66.3,28.56,SW,225,2.3,2.3,86,0.00,CLR,,0.78,WeatherDisplay:10.37,2013-09-20 01:09:00,
2013-09-19 20:10:00,70.7,66.3,28.56,SSW,202,2.3,2.3,86,0.00,CLR,,0.78,WeatherDisplay:10.37,2013-09-20 01:10:00,
2013-09-19 20:11:00,70.7,66.3,28.56,SSW,202,5.8,5.8,86,0.00,CLR,,0.78,WeatherDisplay:10.37,2013-09-20 01:11:00,
2013-09-19 20:14:00,70.7,66.3,28.56,NW,315,5.4,5.4,86,0.00,CLR,,0.78,WeatherDisplay:10.37,2013-09-20 01:14:00,
2013-09-19 20:16:00,70.7,66.3,28.56,NW,315,5.8,5.8,86,0.00,CLR,,0.78,WeatherDisplay:10.37,2013-09-20 01:16:00,
2013-09-19 20:17:00,70.5,66.1,28.56,SSW,202,4.6,4.6,86,0.00,CLR,,0.78,WeatherDisplay:10.37,2013-09-20 01:17:00,
2013-09-19 20:20:00,70.5,66.1,28.56,South,180,5.8,5.8,86,0.00,CLR,,0.78,WeatherDisplay:10.37,2013-09-20 01:20:00,
2013-09-19 20:21:00,70.5,66.1,28.56,WSW,248,3.1,3.1,86,0.00,CLR,,0.78,WeatherDisplay:10.37,2013-09-20 01:21:00,
2013-09-19 20:23:00,70.5,66.5,28.56,West,270,3.5,3.5,87,0.00,CLR,,0.78,WeatherDisplay:10.37,2013-09-20 01:23:00,
2013-09-19 20:25:00,70.5,66.5,28.56,WSW,248,3.8,3.8,87,0.00,CLR,,0.78,WeatherDisplay:10.37,2013-09-20 01:25:00,
2013-09-19 20:26:00,70.5,66.5,28.56,WSW,248,5.8,5.8,87,0.00,CLR,,0.78,WeatherDisplay:10.37,2013-09-20 01:26:00,
2013-09-19 20:27:00,70.5,66.5,28.56,WNW,292,4.3,4.3,87,0.00,CLR,,0.78,WeatherDisplay:10.37,2013-09-20 01:27:00,
2013-09-19 20:28:00,70.5,66.5,28.56,West,270,4.6,4.6,87,0.00,CLR,,0.78,WeatherDisplay:10.37,2013-09-20 01:28:00,
2013-09-19 20:30:00,70.5,66.5,28.56,SW,235,1.0,6.0,87,0.00,CLR,,0.78,WeatherDisplay:10.37,2013-09-20 01:30:00,
2013-09-19 20:32:00,70.5,66.5,28.56,WSW,248,2.4,2.4,87,0.00,CLR,,0.78,WeatherDisplay:10.37,2013-09-20 01:32:00,
2013-09-19 20:33:00,70.7,66.6,28.56,ESE,112,3.5,3.5,87,0.00,CLR,,0.78,WeatherDisplay:10.37,2013-09-20 01:33:00,
2013-09-19 20:35:00,70.7,66.6,28.56,SW,231,2.0,4.0,87,0.00,CLR,,0.78,WeatherDisplay:10.37,2013-09-20 01:35:00,
2013-09-19 20:37:00,70.7,66.6,28.56,SW,225,4.6,4.6,87,0.00,CLR,,0.78,WeatherDisplay:10.37,2013-09-20 01:37:00,
2013-09-19 20:38:00,70.9,66.8,28.56,South,180,4.6,4.6,87,0.00,CLR,,0.78,WeatherDisplay:10.37,2013-09-20 01:38:00,
2013-09-19 20:39:00,70.9,66.8,28.56,WSW,248,3.5,3.5,87,0.00,CLR,,0.78,WeatherDisplay:10.37,2013-09-20 01:39:00,
2013-09-19 20:40:00,70.9,66.8,28.56,SW,228,2.0,5.0,87,0.00,CLR,,0.78,WeatherDisplay:10.37,2013-09-20 01:40:00,
2013-09-19 20:42:00,70.9,66.8,28.56,SW,225,5.8,5.8,87,0.00,CLR,,0.78,WeatherDisplay:10.37,2013-09-20 01:42:00,
2013-09-19 20:43:00,70.9,66.8,28.56,WSW,248,3.5,3.5,87,0.00,CLR,,0.78,WeatherDisplay:10.37,2013-09-20 01:43:00,
2013-09-19 20:44:00,70.9,66.8,28.56,SSW,202,2.4,2.4,87,0.00,CLR,,0.78,WeatherDisplay:10.37,2013-09-20 01:44:00,
2013-09-19 20:45:00,70.9,66.8,28.56,NE,45,2.9,2.9,87,0.00,CLR,,0.78,WeatherDisplay:10.37,2013-09-20 01:45:00,
2013-09-19 20:47:00,70.9,66.8,28.56,West,270,4.6,4.6,87,0.00,CLR,,0.78,WeatherDisplay:10.37,2013-09-20 01:47:00,
2013-09-19 20:48:00,70.9,66.8,28.56,West,270,4.6,4.6,87,0.00,CLR,,0.78,WeatherDisplay:10.37,2013-09-20 01:48:00,
2013-09-19 20:49:00,70.9,66.5,28.56,WSW,248,4.6,4.6,86,0.00,CLR,,0.78,WeatherDisplay:10.37,2013-09-20 01:49:00,
2013-09-19 20:50:00,70.9,66.5,28.56,West,270,4.9,4.9,86,0.00,CLR,,0.78,WeatherDisplay:10.37,2013-09-20 01:50:00,
2013-09-19 20:52:00,70.7,66.3,28.56,West,270,2.3,2.3,86,0.00,CLR,,0.78,WeatherDisplay:10.37,2013-09-20 01:52:00,
2013-09-19 20:53:00,70.7,66.6,28.56,SW,225,2.3,2.3,87,0.00,CLR,,0.78,WeatherDisplay:10.37,2013-09-20 01:53:00,
2013-09-19 20:55:00,70.7,66.3,28.56,WSW,248,3.5,3.5,86,0.00,CLR,,0.78,WeatherDisplay:10.37,2013-09-20 01:55:00,
2013-09-19 20:58:00,70.5,66.5,28.56,West,270,4.6,4.6,87,0.01,RA,,0.79,WeatherDisplay:10.37,2013-09-20 01:58:00,
2013-09-19 21:00:00,70.3,66.3,28.56,WNW,292,1.2,1.2,87,0.01,RA,,0.79,WeatherDisplay:10.37,2013-09-20 02:00:00,
2013-09-19 21:03:00,70.2,66.1,28.56,NW,315,2.3,2.3,87,0.01,RA,,0.79,WeatherDisplay:10.37,2013-09-20 02:03:00,
2013-09-19 21:05:00,70.0,65.9,28.56,NW,315,2.3,2.3,87,0.02,RA,,0.80,WeatherDisplay:10.37,2013-09-20 02:05:00,
2013-09-19 21:06:00,70.0,65.9,28.56,NW,315,2.3,2.3,87,0.02,RA,,0.80,WeatherDisplay:10.37,2013-09-20 02:06:00,
2013-09-19 21:08:00,69.8,65.8,28.56,NNW,338,0.0,0.0,87,0.02,RA,,0.80,WeatherDisplay:10.37,2013-09-20 02:08:00,
2013-09-19 21:11:00,69.6,65.9,28.56,NNW,338,2.3,2.3,88,0.02,RA,,0.80,WeatherDisplay:10.37,2013-09-20 02:11:00,
2013-09-19 21:13:00,69.4,66.1,28.56,NW,315,2.3,2.4,89,0.02,RA,,0.80,WeatherDisplay:10.37,2013-09-20 02:13:00,
2013-09-19 21:16:00,69.3,65.9,28.56,North,0,2.3,2.3,89,0.02,,,0.80,WeatherDisplay:10.37,2013-09-20 02:16:00,
2013-09-19 21:18:00,69.1,66.0,28.56,North,0,4.6,4.6,90,0.02,CLR,,0.80,WeatherDisplay:10.37,2013-09-20 02:18:00,
2013-09-19 21:19:00,69.1,66.0,28.56,NNW,338,4.6,4.6,90,0.02,CLR,,0.80,WeatherDisplay:10.37,2013-09-20 02:19:00,
2013-09-19 21:21:00,68.9,65.8,28.56,NW,315,4.6,4.6,90,0.02,CLR,,0.80,WeatherDisplay:10.37,2013-09-20 02:21:00,
2013-09-19 21:24:00,68.7,65.7,28.56,NNW,338,3.5,3.5,90,0.02,CLR,,0.80,WeatherDisplay:10.37,2013-09-20 02:24:00,
2013-09-19 21:26:00,68.5,65.5,28.53,NNW,338,5.4,5.4,90,0.03,RA,,0.81,WeatherDisplay:10.37,2013-09-20 02:26:00,
2013-09-19 21:27:00,68.5,65.5,28.53,North,0,4.7,4.7,90,0.03,RA,,0.81,WeatherDisplay:10.37,2013-09-20 02:27:00,
2013-09-19 21:29:00,68.4,65.6,28.53,NW,315,4.6,4.6,91,0.03,RA,,0.81,WeatherDisplay:10.37,2013-09-20 02:29:00,
2013-09-19 21:31:00,68.4,65.6,28.53,NW,315,3.5,3.5,91,0.03,RA,,0.81,WeatherDisplay:10.37,2013-09-20 02:31:00,
2013-09-19 21:32:00,68.4,65.6,28.53,NNW,338,3.5,3.5,91,0.03,RA,,0.81,WeatherDisplay:10.37,2013-09-20 02:32:00,
2013-09-19 21:34:00,68.2,65.1,28.53,North,0,2.3,2.3,90,0.03,RA,,0.83,WeatherDisplay:10.37,2013-09-20 02:34:00,
2013-09-19 21:36:00,68.2,65.1,28.53,NNW,338,2.3,2.3,90,0.04,RA,,0.83,WeatherDisplay:10.37,2013-09-20 02:36:00,
2013-09-19 21:37:00,68.0,65.0,28.53,NW,315,1.4,1.4,90,0.04,RA,,0.83,WeatherDisplay:10.37,2013-09-20 02:37:00,
2013-09-19 21:38:00,68.0,65.0,28.53,NW,315,1.2,1.2,90,0.04,RA,,0.83,WeatherDisplay:10.37,2013-09-20 02:38:00,
2013-09-19 21:39:00,68.0,65.0,28.53,SSW,202,1.2,0.0,90,0.04,RA,,0.84,WeatherDisplay:10.37,2013-09-20 02:39:00,
2013-09-19 21:40:00,68.0,65.3,28.53,SSW,202,2.0,2.0,91,0.04,RA,,0.84,WeatherDisplay:10.37,2013-09-20 02:40:00,
2013-09-19 21:42:00,68.0,65.3,28.53,SSW,202,2.3,0.0,91,0.06,RA,,0.84,WeatherDisplay:10.37,2013-09-20 02:42:00,
2013-09-19 21:43:00,68.0,65.3,28.53,South,180,2.0,0.0,91,0.06,RA,,0.84,WeatherDisplay:10.37,2013-09-20 02:43:00,
2013-09-19 21:44:00,68.0,65.3,28.53,South,180,2.3,2.3,91,0.06,RA,,0.84,WeatherDisplay:10.37,2013-09-20 02:44:00,
2013-09-19 21:45:00,67.9,65.2,28.53,SW,235,1.0,3.0,91,0.00,RA,,0.84,WeatherDisplay:10.37,2013-09-20 02:45:00,
2013-09-19 21:47:00,67.8,65.4,28.53,SSW,202,1.2,0.0,92,0.06,RA,,0.84,WeatherDisplay:10.37,2013-09-20 02:47:00,
2013-09-19 21:49:00,67.8,65.4,28.53,SSW,202,0.0,0.0,92,0.07,RA,,0.85,WeatherDisplay:10.37,2013-09-20 02:49:00,
2013-09-19 21:50:00,67.8,65.4,28.53,SSW,197,0.0,3.0,92,0.00,RA,,0.85,WeatherDisplay:10.37,2013-09-20 02:50:00,
2013-09-19 21:52:00,67.6,65.2,28.53,SSW,202,0.0,0.0,92,0.07,RA,,0.85,WeatherDisplay:10.37,2013-09-20 02:52:00,
2013-09-19 21:54:00,67.6,65.2,28.53,SE,135,0.0,0.0,92,0.07,RA,,0.85,WeatherDisplay:10.37,2013-09-20 02:54:00,
2013-09-19 21:55:00,67.6,65.2,28.53,SE,135,0.0,0.0,92,0.07,RA,,0.85,WeatherDisplay:10.37,2013-09-20 02:55:00,
2013-09-19 21:57:00,67.6,65.2,28.53,ESE,112,1.2,1.2,92,0.06,RA,,0.86,WeatherDisplay:10.37,2013-09-20 02:57:00,
2013-09-19 21:59:00,67.6,65.5,28.53,SSE,158,0.0,0.0,93,0.07,RA,,0.86,WeatherDisplay:10.37,2013-09-20 02:59:00,
2013-09-19 22:00:00,67.6,65.5,28.53,SE,143,0.0,2.0,93,0.00,RA,,0.86,WeatherDisplay:10.37,2013-09-20 03:00:00,
2013-09-19 22:02:00,67.6,65.5,28.53,SSE,158,2.3,2.3,93,0.07,RA,,0.86,WeatherDisplay:10.37,2013-09-20 03:02:00,
2013-09-19 22:05:00,67.6,65.5,28.53,SE,135,2.3,2.3,93,0.08,RA,,0.87,WeatherDisplay:10.37,2013-09-20 03:05:00,
2013-09-19 22:07:00,67.6,65.9,28.53,East,90,0.0,0.0,94,0.08,RA,,0.88,WeatherDisplay:10.37,2013-09-20 03:07:00,
2013-09-19 22:10:00,67.6,65.9,28.53,East,90,0.0,0.0,94,0.08,RA,,0.88,WeatherDisplay:10.37,2013-09-20 03:10:00,
2013-09-19 22:13:00,67.6,65.9,28.53,East,90,0.0,0.0,94,0.09,RA,,0.90,WeatherDisplay:10.37,2013-09-20 03:13:00,
2013-09-19 22:15:00,67.6,65.9,28.53,East,90,0.0,0.0,94,0.09,RA,,0.90,WeatherDisplay:10.37,2013-09-20 03:15:00,
2013-09-19 22:16:00,67.6,65.9,28.53,East,90,0.0,0.0,94,0.09,RA,,0.90,WeatherDisplay:10.37,2013-09-20 03:16:00,
2013-09-19 22:18:00,67.5,65.7,28.53,East,90,0.0,0.0,94,0.09,RA,,0.90,WeatherDisplay:10.37,2013-09-20 03:18:00,
2013-09-19 22:20:00,67.6,65.9,28.53,East,90,0.0,0.0,94,0.09,RA,,0.90,WeatherDisplay:10.37,2013-09-20 03:20:00,
2013-09-19 22:21:00,67.6,66.2,28.53,SW,225,0.0,0.0,95,0.09,RA,,0.90,WeatherDisplay:10.37,2013-09-20 03:21:00,
2013-09-19 22:23:00,67.6,66.2,28.53,SW,225,0.0,0.0,95,0.09,,,0.90,WeatherDisplay:10.37,2013-09-20 03:23:00,
2013-09-19 22:25:00,67.6,66.2,28.53,WSW,248,3.1,3.1,95,0.09,CLR,,0.90,WeatherDisplay:10.37,2013-09-20 03:25:00,
2013-09-19 22:26:00,67.6,66.2,28.53,SSW,202,3.5,3.5,95,0.08,CLR,,0.90,WeatherDisplay:10.37,2013-09-20 03:26:00,
2013-09-19 22:28:00,67.6,66.2,28.53,SSW,202,1.6,1.6,95,0.08,CLR,,0.90,WeatherDisplay:10.37,2013-09-20 03:28:00,
2013-09-19 22:30:00,67.5,66.0,28.53,SW,225,2.3,2.3,95,0.08,CLR,,0.90,WeatherDisplay:10.37,2013-09-20 03:30:00,
2013-09-19 22:32:00,67.5,66.0,28.53,SW,225,1.2,1.2,95,0.08,CLR,,0.90,WeatherDisplay:10.37,2013-09-20 03:32:00,
2013-09-19 22:33:00,67.5,66.3,28.53,SW,225,1.6,1.6,96,0.08,CLR,,0.90,WeatherDisplay:10.37,2013-09-20 03:33:00,
2013-09-19 22:35:00,67.5,66.3,28.53,SSW,202,1.2,1.2,96,0.07,CLR,,0.90,WeatherDisplay:10.37,2013-09-20 03:35:00,
2013-09-19 22:37:00,67.5,66.3,28.53,SW,225,2.3,0.0,96,0.07,CLR,,0.90,WeatherDisplay:10.37,2013-09-20 03:37:00,
2013-09-19 22:38:00,67.5,66.3,28.53,WSW,248,2.3,0.0,96,0.07,CLR,,0.90,WeatherDisplay:10.37,2013-09-20 03:38:00,
2013-09-19 22:40:00,67.5,66.3,28.56,West,270,0.0,0.0,96,0.06,CLR,,0.90,WeatherDisplay:10.37,2013-09-20 03:40:00,
2013-09-19 22:41:00,67.5,66.3,28.56,West,270,0.0,0.0,96,0.06,CLR,,0.90,WeatherDisplay:10.37,2013-09-20 03:41:00,
2013-09-19 22:43:00,67.5,66.3,28.56,West,270,0.0,0.0,96,0.06,CLR,,0.90,WeatherDisplay:10.37,2013-09-20 03:43:00,
2013-09-19 22:45:00,67.5,66.3,28.56,West,270,1.2,0.0,96,0.06,CLR,,0.90,WeatherDisplay:10.37,2013-09-20 03:45:00,
2013-09-19 22:46:00,67.5,66.3,28.56,West,270,1.2,0.0,96,0.06,CLR,,0.90,WeatherDisplay:10.37,2013-09-20 03:46:00,
2013-09-19 22:48:00,67.5,66.3,28.56,West,270,0.0,0.0,96,0.06,CLR,,0.90,WeatherDisplay:10.37,2013-09-20 03:48:00,
2013-09-19 22:49:00,67.5,66.3,28.56,West,270,0.0,0.0,96,0.05,CLR,,0.90,WeatherDisplay:10.37,2013-09-20 03:49:00,
2013-09-19 22:51:00,67.5,66.3,28.56,West,270,0.0,0.0,96,0.05,CLR,,0.90,WeatherDisplay:10.37,2013-09-20 03:51:00,
2013-09-19 22:53:00,67.5,66.3,28.56,West,270,0.0,0.0,96,0.05,CLR,,0.90,WeatherDisplay:10.37,2013-09-20 03:53:00,
2013-09-19 22:54:00,67.5,66.3,28.56,West,270,0.0,0.0,96,0.05,CLR,,0.90,WeatherDisplay:10.37,2013-09-20 03:54:00,
2013-09-19 22:56:00,67.5,66.3,28.56,West,270,0.0,0.0,96,0.05,CLR,,0.90,WeatherDisplay:10.37,2013-09-20 03:56:00,
2013-09-19 22:59:00,67.5,66.3,28.56,West,270,0.0,0.0,96,0.04,CLR,,0.90,WeatherDisplay:10.37,2013-09-20 03:59:00,
2013-09-19 23:00:00,67.5,66.3,28.56,West,270,0.0,0.0,96,0.04,CLR,,0.90,WeatherDisplay:10.37,2013-09-20 04:00:00,
2013-09-19 23:01:00,67.5,66.3,28.56,West,270,0.0,0.0,96,0.04,CLR,,0.90,WeatherDisplay:10.37,2013-09-20 04:01:00,
2013-09-19 23:06:00,67.5,66.3,28.56,West,270,1.2,0.0,96,0.02,CLR,,0.90,WeatherDisplay:10.37,2013-09-20 04:06:00,
2013-09-19 23:11:00,67.5,66.3,28.56,NW,315,1.2,0.0,96,0.01,CLR,,0.90,WeatherDisplay:10.37,2013-09-20 04:11:00,
2013-09-19 23:16:00,67.5,66.3,28.56,North,0,0.0,0.0,96,0.00,CLR,,0.90,WeatherDisplay:10.37,2013-09-20 04:16:00,
2013-09-19 23:17:00,67.5,66.3,28.56,West,270,2.2,2.2,96,0.00,CLR,,0.90,WeatherDisplay:10.37,2013-09-20 04:17:00,
2013-09-19 23:21:00,67.5,66.3,28.56,WSW,248,0.9,0.0,96,0.00,CLR,,0.90,WeatherDisplay:10.37,2013-09-20 04:21:00,
2013-09-19 23:22:00,67.5,66.3,28.56,WSW,248,0.0,0.0,96,0.00,CLR,,0.90,WeatherDisplay:10.37,2013-09-20 04:22:00,
2013-09-19 23:27:00,67.5,66.6,28.56,West,270,2.3,2.3,97,0.00,CLR,,0.90,WeatherDisplay:10.37,2013-09-20 04:27:00,
2013-09-19 23:32:00,67.5,66.6,28.56,West,270,0.0,0.0,97,0.00,CLR,,0.90,WeatherDisplay:10.37,2013-09-20 04:32:00,
2013-09-19 23:33:00,67.5,66.6,28.56,West,270,0.0,0.0,97,0.00,CLR,,0.90,WeatherDisplay:10.37,2013-09-20 04:33:00,
2013-09-19 23:37:00,67.5,66.6,28.56,West,270,0.0,0.0,97,0.00,CLR,,0.90,WeatherDisplay:10.37,2013-09-20 04:37:00,
2013-09-19 23:38:00,67.5,66.6,28.56,West,270,0.0,0.0,97,0.00,CLR,,0.90,WeatherDisplay:10.37,2013-09-20 04:38:00,
2013-09-19 23:42:00,67.5,66.6,28.56,West,270,1.2,0.0,97,0.00,CLR,,0.90,WeatherDisplay:10.37,2013-09-20 04:42:00,
2013-09-19 23:43:00,67.5,66.6,28.56,West,270,1.2,0.0,97,0.00,CLR,,0.90,WeatherDisplay:10.37,2013-09-20 04:43:00,
2013-09-19 23:47:00,67.5,66.6,28.56,SSW,202,0.0,0.0,97,0.00,CLR,,0.90,WeatherDisplay:10.37,2013-09-20 04:47:00,
2013-09-19 23:48:00,67.5,66.6,28.56,SSW,202,0.0,0.0,97,0.00,CLR,,0.90,WeatherDisplay:10.37,2013-09-20 04:48:00,
2013-09-19 23:53:00,67.3,66.4,28.56,WSW,248,0.0,0.0,97,0.01,RA,,0.91,WeatherDisplay:10.37,2013-09-20 04:53:00,
2013-09-19 23:54:00,67.3,66.4,28.56,WSW,248,0.0,0.0,97,0.01,RA,,0.91,WeatherDisplay:10.37,2013-09-20 04:54:00,
2013-09-19 23:58:00,67.3,66.4,28.56,WSW,248,0.0,0.0,97,0.01,RA,,0.91,WeatherDisplay:10.37,2013-09-20 04:58:00,
2013-09-19 23:59:00,67.3,66.4,28.56,WSW,248,0.0,0.0,97,0.01,RA,,0.91,WeatherDisplay:10.37,2013-09-20 04:59:00,